M I D A S
Marine Information and Data Acquisition System
Tripno 1493 of the Zeeleeuw from 2008-05-27 06:58:41 to 2008-05-27 12:51:19
Back to CruiseResearch ActivitiesStationsMapUnderway DataData graphs

EquipmentUnitsComment
TimeDGPSUTC
LatitudeDGPSDM.mWGS84
LongitudeDGPSDM.mWGS84
TemperatureSBE03/SBE38deg celciusITS90
ConductivitySBE21S/mITS90
SalinitySBE21 Practical Salinity Units
ChlorophylAChelsea fluorimeterg/lCalibrated in Aceton
Missing or incorrect values are displayed as -999
Sea surface data collected by the RV Zeeleeuw from 2008-05-27 06:55:51 to 2008-05-27 12:55:50
                                                                                    Next 1000 lines
Time Latitude Longitude Temperature Conductivity Salinity ChlorophylA
2008-05-27 06:56:01 51°13.622 2°56.048 19.6714 0.009792 0.054826 -1.766697
2008-05-27 06:56:06 51°13.622 2°56.047 19.6854 0.009792 0.054826 -1.766697
2008-05-27 06:56:11 51°13.622 2°56.047 19.6838 0.009792 0.054826 -1.766697
2008-05-27 06:56:16 51°13.622 2°56.047 19.6771 0.009792 0.054826 -1.766697
2008-05-27 06:56:21 51°13.622 2°56.047 19.6808 0.009792 0.054826 -1.766697
2008-05-27 06:56:26 51°13.621 2°56.047 19.6787 0.009792 0.054826 -1.766697
2008-05-27 06:56:31 51°13.621 2°56.047 19.678 0.009792 0.054826 -1.766697
2008-05-27 06:56:36 51°13.621 2°56.048 19.6774 0.009792 0.054827 -1.766697
2008-05-27 06:56:41 51°13.621 2°56.048 19.6753 0.009792 0.054827 -1.766697
2008-05-27 06:56:46 51°13.622 2°56.048 19.6751 0.009792 0.054826 -1.766697
2008-05-27 06:56:51 51°13.622 2°56.049 19.6741 0.009792 0.054827 -1.766697
2008-05-27 06:56:56 51°13.622 2°56.049 19.6743 0.009792 0.054827 -1.766697
2008-05-27 06:57:01 51°13.622 2°56.049 19.681 0.009792 0.054827 -1.766697
2008-05-27 06:57:06 51°13.622 2°56.049 19.6779 0.009792 0.054827 -1.766697
2008-05-27 06:57:11 51°13.622 2°56.049 19.6797 0.009792 0.054828 -1.766697
2008-05-27 06:57:16 51°13.622 2°56.049 19.6823 0.009792 0.054828 -1.766697
2008-05-27 06:57:21 51°13.622 2°56.049 19.679 0.009792 0.054828 -1.731873
2008-05-27 06:57:26 51°13.622 2°56.049 19.6817 0.009792 0.054827 -1.731873
2008-05-27 06:57:31 51°13.622 2°56.049 19.6829 0.009792 0.054828 -1.766697
2008-05-27 06:57:36 51°13.622 2°56.049 19.6798 0.009792 0.054828 -1.766697
2008-05-27 06:57:41 51°13.622 2°56.049 19.679 0.009792 0.054828 -1.766697
2008-05-27 06:57:46 51°13.622 2°56.049 19.6795 0.009792 0.054828 -1.766697
2008-05-27 06:57:51 51°13.622 2°56.049 19.6801 0.009792 0.054828 -1.731873
2008-05-27 06:57:56 51°13.622 2°56.049 19.684 0.009792 0.054828 -1.766697
2008-05-27 06:58:01 51°13.622 2°56.049 19.6852 0.009792 0.054828 -1.766697
2008-05-27 06:58:06 51°13.621 2°56.049 19.6835 0.009792 0.054828 -1.766697
2008-05-27 06:58:11 51°13.621 2°56.049 19.6819 0.009792 0.054829 -1.766697
2008-05-27 06:58:16 51°13.621 2°56.049 19.6818 0.009792 0.054829 -1.766697
2008-05-27 06:58:21 51°13.621 2°56.048 19.6825 0.009792 0.054828 -1.766697
2008-05-27 06:58:26 51°13.621 2°56.048 19.6765 0.009792 0.054828 -1.731873
2008-05-27 06:58:31 51°13.621 2°56.048 19.6642 0.009792 0.054829 -1.766697
2008-05-27 06:58:36 51°13.621 2°56.048 19.6561 0.009792 0.054828 -1.766697
2008-05-27 06:58:41 51°13.621 2°56.046 19.6498 0.009792 0.054829 -1.766697
2008-05-27 06:58:46 51°13.622 2°56.043 19.5742 0.009792 0.054829 -1.766697
2008-05-27 06:58:51 51°13.623 2°56.039 19.6237 0.009792 0.054829 -1.766697
2008-05-27 06:58:56 51°13.624 2°56.034 19.6302 0.009792 0.054829 -1.766697
2008-05-27 06:59:01 51°13.625 2°56.029 19.6652 0.009792 0.054829 -1.766697
2008-05-27 06:59:06 51°13.627 2°56.023 19.6516 0.009792 0.054829 -1.731873
2008-05-27 06:59:11 51°13.629 2°56.016 19.641 0.009792 0.054829 -1.766697
2008-05-27 06:59:16 51°13.631 2°56.009 19.6335 0.009792 0.054829 -1.766697
2008-05-27 06:59:21 51°13.633 2°56.002 19.6587 0.009792 0.054829 -1.766697
2008-05-27 06:59:26 51°13.636 2°55.994 19.6566 0.009792 0.054829 -1.766697
2008-05-27 06:59:31 51°13.638 2°55.986 19.6679 0.009792 0.054829 -1.766697
2008-05-27 06:59:36 51°13.641 2°55.977 19.6607 0.009792 0.05483 -1.766697
2008-05-27 06:59:41 51°13.643 2°55.969 19.6686 0.009792 0.054829 -1.766697
2008-05-27 06:59:46 51°13.645 2°55.96 19.6596 0.009792 0.054829 -1.766697
2008-05-27 06:59:51 51°13.648 2°55.951 19.6644 0.009792 0.05483 -1.766697
2008-05-27 06:59:56 51°13.651 2°55.942 19.6599 0.009792 0.05483 -1.766697
2008-05-27 07:00:01 51°13.654 2°55.932 19.676 0.009792 0.05483 -1.766697
2008-05-27 07:00:06 51°13.656 2°55.923 19.6749 0.009792 0.05483 -1.766697
2008-05-27 07:00:11 51°13.659 2°55.913 19.681 0.009792 0.05483 -1.766697
2008-05-27 07:00:16 51°13.662 2°55.904 19.6831 0.009792 0.05483 -1.766697
2008-05-27 07:00:21 51°13.665 2°55.895 19.68 0.009792 0.05483 -1.766697
2008-05-27 07:00:26 51°13.667 2°55.886 19.6812 0.009792 0.05483 -1.766697
2008-05-27 07:00:31 51°13.67 2°55.878 19.679 0.009792 0.05483 -1.766697
2008-05-27 07:00:36 51°13.672 2°55.869 19.6797 0.009792 0.05483 -1.766697
2008-05-27 07:00:41 51°13.674 2°55.861 19.683 0.009792 0.05483 -1.766697
2008-05-27 07:00:46 51°13.676 2°55.853 19.6871 0.009792 0.05483 -1.766697
2008-05-27 07:00:51 51°13.678 2°55.846 19.6795 0.009792 0.05483 -1.766697
2008-05-27 07:00:56 51°13.68 2°55.839 19.6789 0.009792 0.054831 -1.766697
2008-05-27 07:01:01 51°13.682 2°55.832 19.6772 0.009792 0.05483 -1.766697
2008-05-27 07:01:06 51°13.683 2°55.825 19.6778 0.009792 0.05483 -1.766697
2008-05-27 07:01:11 51°13.685 2°55.818 19.6769 0.009792 0.054831 -1.766697
2008-05-27 07:01:16 51°13.686 2°55.812 19.6842 0.009792 0.054831 -1.766697
2008-05-27 07:01:21 51°13.688 2°55.807 19.6792 0.009792 0.054831 -1.766697
2008-05-27 07:01:26 51°13.689 2°55.802 19.6728 0.009792 0.054831 -1.766697
2008-05-27 07:01:31 51°13.69 2°55.797 19.6753 0.009792 0.054831 -1.766697
2008-05-27 07:01:35 51°13.691 2°55.793 19.6768 0.009792 0.054831 -1.766697
2008-05-27 07:01:40 51°13.691 2°55.789 19.6845 0.009792 0.054832 -1.766697
2008-05-27 07:01:45 51°13.692 2°55.786 19.6675 0.009792 0.054832 -1.766697
2008-05-27 07:01:51 51°13.693 2°55.782 19.6679 0.009792 0.054832 -1.766697
2008-05-27 07:01:55 51°13.694 2°55.78 19.6702 0.009792 0.054832 -1.766697
2008-05-27 07:02:00 51°13.694 2°55.777 19.6739 0.009792 0.054832 -1.766697
2008-05-27 07:02:05 51°13.695 2°55.775 19.6772 0.009792 0.054832 -1.766697
2008-05-27 07:02:10 51°13.695 2°55.773 19.6845 0.009792 0.054832 -1.766697
2008-05-27 07:02:15 51°13.696 2°55.771 19.6777 0.009792 0.054832 -1.766697
2008-05-27 07:02:20 51°13.696 2°55.77 19.6805 0.009792 0.054832 -1.766697
2008-05-27 07:02:26 51°13.697 2°55.769 19.6768 0.009792 0.054832 -1.766697
2008-05-27 07:02:31 51°13.697 2°55.768 19.6794 0.009792 0.054832 -1.731873
2008-05-27 07:02:36 51°13.698 2°55.768 19.6803 0.009792 0.054832 -1.766697
2008-05-27 07:02:41 51°13.698 2°55.768 19.6833 0.009792 0.054832 -1.766697
2008-05-27 07:02:46 51°13.699 2°55.768 19.6862 0.009792 0.054832 -1.766697
2008-05-27 07:02:51 51°13.7 2°55.769 19.6785 0.009792 0.054833 -1.766697
2008-05-27 07:02:56 51°13.7 2°55.769 19.6767 0.009792 0.054833 -1.766697
2008-05-27 07:03:01 51°13.701 2°55.769 19.6779 0.009792 0.054833 -1.766697
2008-05-27 07:03:06 51°13.702 2°55.77 19.6768 0.009792 0.054833 -1.766697
2008-05-27 07:03:11 51°13.702 2°55.77 19.6754 0.009792 0.054833 -1.731873
2008-05-27 07:03:16 51°13.703 2°55.77 19.6704 0.009792 0.054833 -1.731873
2008-05-27 07:03:21 51°13.703 2°55.77 19.6727 0.009792 0.054834 -1.766697
2008-05-27 07:03:26 51°13.704 2°55.77 19.6808 0.009792 0.054834 -1.766697
2008-05-27 07:03:31 51°13.704 2°55.77 19.6742 0.009792 0.054834 -1.766697
2008-05-27 07:03:36 51°13.705 2°55.769 19.6795 0.009792 0.054834 -1.766697
2008-05-27 07:03:41 51°13.706 2°55.769 19.6715 0.009792 0.054834 -1.766697
2008-05-27 07:03:46 51°13.706 2°55.769 19.6779 0.009792 0.054834 -1.766697
2008-05-27 07:03:51 51°13.706 2°55.768 19.6658 0.009792 0.054834 -1.766697
2008-05-27 07:03:56 51°13.706 2°55.767 19.6702 0.009792 0.054834 -1.766697
2008-05-27 07:04:01 51°13.706 2°55.766 19.6712 0.009792 0.054834 -1.766697
2008-05-27 07:04:06 51°13.706 2°55.764 19.6757 0.009792 0.054835 -1.766697
2008-05-27 07:04:11 51°13.705 2°55.763 19.6747 0.009792 0.054835 -1.766697
2008-05-27 07:04:16 51°13.705 2°55.761 19.6761 0.009792 0.054835 -1.766697
2008-05-27 07:04:21 51°13.704 2°55.76 19.6858 0.009792 0.054835 -1.766697
2008-05-27 07:04:26 51°13.704 2°55.758 19.6841 0.009792 0.054836 -1.766697
2008-05-27 07:04:31 51°13.704 2°55.756 19.6824 0.009792 0.054835 -1.766697
2008-05-27 07:04:36 51°13.703 2°55.755 19.681 0.009792 0.054835 -1.766697
2008-05-27 07:04:41 51°13.702 2°55.753 19.6796 0.009792 0.054836 -1.766697
2008-05-27 07:04:46 51°13.702 2°55.752 19.6833 0.009792 0.054836 -1.766697
2008-05-27 07:04:51 51°13.701 2°55.751 19.6831 0.009792 0.054836 -1.766697
2008-05-27 07:04:56 51°13.701 2°55.749 19.6824 0.009792 0.054836 -1.766697
2008-05-27 07:05:01 51°13.7 2°55.748 19.681 0.009792 0.054836 -1.766697
2008-05-27 07:05:06 51°13.699 2°55.747 19.6809 0.009792 0.054836 -1.766697
2008-05-27 07:05:11 51°13.699 2°55.746 19.6815 0.009792 0.054836 -1.766697
2008-05-27 07:05:16 51°13.698 2°55.745 19.6786 0.009792 0.054836 -1.766697
2008-05-27 07:05:21 51°13.697 2°55.744 19.6817 0.009792 0.054836 -1.766697
2008-05-27 07:05:26 51°13.696 2°55.743 19.6836 0.009792 0.054836 -1.766697
2008-05-27 07:05:31 51°13.696 2°55.742 19.6808 0.009792 0.054837 -1.766697
2008-05-27 07:05:35 51°13.695 2°55.742 19.6798 0.009792 0.054836 -1.766697
2008-05-27 07:05:40 51°13.695 2°55.741 19.6849 0.009792 0.054837 -1.766697
2008-05-27 07:05:46 51°13.694 2°55.74 19.6844 0.009792 0.054837 -1.766697
2008-05-27 07:05:51 51°13.694 2°55.739 19.682 0.009792 0.054837 -1.766697
2008-05-27 07:05:55 51°13.694 2°55.739 19.6845 0.009792 0.054837 -1.766697
2008-05-27 07:06:00 51°13.694 2°55.738 19.6887 0.009792 0.054837 -1.766697
2008-05-27 07:06:05 51°13.694 2°55.738 19.6829 0.009792 0.054837 -1.766697
2008-05-27 07:06:10 51°13.694 2°55.737 19.6819 0.009792 0.054837 -1.766697
2008-05-27 07:06:15 51°13.693 2°55.737 19.6827 0.009792 0.054837 -1.766697
2008-05-27 07:06:20 51°13.693 2°55.736 19.6832 0.009792 0.054837 -1.766697
2008-05-27 07:06:25 51°13.693 2°55.736 19.6831 0.009792 0.054837 -1.766697
2008-05-27 07:06:30 51°13.693 2°55.735 19.6843 0.009792 0.054837 -1.766697
2008-05-27 07:06:35 51°13.693 2°55.735 19.6811 0.009792 0.054837 -1.766697
2008-05-27 07:06:39 51°13.693 2°55.735 19.6843 0.009792 0.054838 -1.766697
2008-05-27 07:06:44 51°13.693 2°55.734 19.6854 0.009792 0.054838 -1.766697
2008-05-27 07:06:49 51°13.693 2°55.734 19.6854 0.009792 0.054838 -1.766697
2008-05-27 07:06:55 51°13.692 2°55.734 19.6845 0.009792 0.054838 -1.766697
2008-05-27 07:06:59 51°13.692 2°55.733 19.6835 0.009792 0.054838 -1.766697
2008-05-27 07:07:04 51°13.692 2°55.733 19.6813 0.009792 0.054838 -1.766697
2008-05-27 07:07:09 51°13.692 2°55.732 19.6886 0.009792 0.054838 -1.766697
2008-05-27 07:07:14 51°13.692 2°55.732 19.6884 0.009792 0.054838 -1.766697
2008-05-27 07:07:19 51°13.692 2°55.731 19.6882 0.009792 0.054838 -1.731873
2008-05-27 07:07:24 51°13.692 2°55.731 19.6877 0.009792 0.054838 -1.766697
2008-05-27 07:07:29 51°13.692 2°55.73 19.688 0.009792 0.054838 -1.766697
2008-05-27 07:07:34 51°13.692 2°55.73 19.6861 0.009792 0.054838 -1.766697
2008-05-27 07:07:39 51°13.692 2°55.729 19.6918 0.009792 0.054838 -1.766697
2008-05-27 07:07:43 51°13.692 2°55.729 19.6895 0.009792 0.054838 -1.766697
2008-05-27 07:07:48 51°13.692 2°55.728 19.6877 0.009792 0.054838 -1.766697
2008-05-27 07:07:53 51°13.692 2°55.728 19.6868 0.009792 0.054839 -1.766697
2008-05-27 07:07:58 51°13.692 2°55.727 19.6871 0.009792 0.054839 -1.731873
2008-05-27 07:08:03 51°13.692 2°55.727 19.6878 0.009792 0.054839 -1.766697
2008-05-27 07:08:08 51°13.692 2°55.726 19.6882 0.009792 0.054839 -1.766697
2008-05-27 07:08:13 51°13.692 2°55.725 19.6884 0.009792 0.054839 -1.766697
2008-05-27 07:08:18 51°13.692 2°55.725 19.6871 0.009792 0.054839 -1.766697
2008-05-27 07:08:23 51°13.692 2°55.724 19.6872 0.009792 0.054839 -1.766697
2008-05-27 07:08:28 51°13.692 2°55.724 19.6874 0.009792 0.054839 -1.766697
2008-05-27 07:08:32 51°13.692 2°55.723 19.6866 0.009792 0.054839 -1.766697
2008-05-27 07:08:38 51°13.692 2°55.723 19.6864 0.009792 0.054839 -1.731873
2008-05-27 07:08:43 51°13.693 2°55.722 19.6875 0.009792 0.054839 -1.731873
2008-05-27 07:08:48 51°13.693 2°55.721 19.6918 0.009792 0.05484 -1.766697
2008-05-27 07:08:52 51°13.693 2°55.721 19.721 0.009792 0.054839 -1.766697
2008-05-27 07:08:57 51°13.694 2°55.72 19.7316 0.009792 0.054839 -1.766697
2008-05-27 07:09:02 51°13.695 2°55.72 19.7316 0.009792 0.05484 -1.766697
2008-05-27 07:09:07 51°13.698 2°55.719 19.723 0.009792 0.05484 -1.766697
2008-05-27 07:09:14 51°13.704 2°55.717 19.7192 0.009792 0.05484 -1.766697
2008-05-27 07:09:19 51°13.709 2°55.716 19.7166 0.009792 0.05484 -1.766697
2008-05-27 07:09:24 51°13.715 2°55.713 19.6794 0.009792 0.05484 -1.766697
2008-05-27 07:09:28 51°13.719 2°55.711 19.6871 0.009792 0.05484 -1.766697
2008-05-27 07:09:33 51°13.725 2°55.709 19.6815 0.009792 0.05484 -1.766697
2008-05-27 07:09:39 51°13.732 2°55.705 19.6835 0.009792 0.05484 -1.766697
2008-05-27 07:09:43 51°13.737 2°55.702 19.6812 0.009792 0.05484 -1.766697
2008-05-27 07:09:48 51°13.743 2°55.698 19.6813 0.009792 0.05484 -1.766697
2008-05-27 07:09:52 51°13.747 2°55.695 19.7016 0.009792 0.05484 -1.766697
2008-05-27 07:09:58 51°13.755 2°55.69 19.7119 0.009792 0.05484 -1.766697
2008-05-27 07:10:03 51°13.761 2°55.685 19.6878 0.009792 0.05484 -1.766697
2008-05-27 07:10:08 51°13.769 2°55.679 19.6667 0.009792 0.054841 -1.766697
2008-05-27 07:10:13 51°13.776 2°55.673 19.6264 0.009792 0.054841 -1.766697
2008-05-27 07:10:18 51°13.784 2°55.667 19.6338 0.009792 0.054841 -1.766697
2008-05-27 07:10:23 51°13.792 2°55.662 19.6458 0.009792 0.054841 -1.766697
2008-05-27 07:10:28 51°13.8 2°55.656 19.6519 0.009792 0.054841 -1.766697
2008-05-27 07:10:32 51°13.806 2°55.651 19.664 0.009792 0.054841 -1.766697
2008-05-27 07:10:38 51°13.815 2°55.644 19.6668 0.009792 0.054841 -1.766697
2008-05-27 07:10:43 51°13.823 2°55.639 19.659 0.009792 0.054841 -1.766697
2008-05-27 07:10:48 51°13.83 2°55.633 19.6624 0.009792 0.054841 -1.766697
2008-05-27 07:10:52 51°13.836 2°55.628 19.6655 0.009792 0.054841 -1.731873
2008-05-27 07:10:57 51°13.844 2°55.622 19.6685 0.009792 0.054842 -1.766697
2008-05-27 07:11:03 51°13.853 2°55.616 19.6716 0.009792 0.054842 -1.766697
2008-05-27 07:11:08 51°13.86 2°55.61 19.6699 0.009792 0.054842 -1.731873
2008-05-27 07:11:13 51°13.868 2°55.605 19.6669 0.009792 0.054842 -1.731873
2008-05-27 07:11:18 51°13.875 2°55.599 19.67 0.009792 0.054842 -1.766697
2008-05-27 07:11:23 51°13.882 2°55.593 19.6736 0.009792 0.054842 -1.766697
2008-05-27 07:11:27 51°13.888 2°55.589 19.6672 0.009792 0.054842 -1.766697
2008-05-27 07:11:32 51°13.896 2°55.584 19.6745 0.009792 0.054842 -1.766697
2008-05-27 07:11:38 51°13.905 2°55.577 19.6783 0.009792 0.054842 -1.766697
2008-05-27 07:11:43 51°13.912 2°55.572 19.6809 0.009792 0.054842 -1.766697
2008-05-27 07:11:48 51°13.919 2°55.566 19.6823 0.009792 0.054842 -1.766697
2008-05-27 07:11:54 51°13.928 2°55.56 19.6868 0.009792 0.054842 -1.766697
2008-05-27 07:11:59 51°13.935 2°55.555 19.6822 0.009792 0.054842 -1.766697
2008-05-27 07:12:04 51°13.943 2°55.55 19.6828 0.009792 0.054842 -1.766697
2008-05-27 07:12:09 51°13.95 2°55.544 19.6795 0.009792 0.054842 -1.766697
2008-05-27 07:12:14 51°13.957 2°55.539 19.6925 0.009792 0.054842 -1.766697
2008-05-27 07:12:19 51°13.965 2°55.533 19.692 0.009792 0.054842 -1.766697
2008-05-27 07:12:23 51°13.971 2°55.529 19.6841 0.009792 0.054842 -1.766697
2008-05-27 07:12:28 51°13.978 2°55.524 19.6819 0.009792 0.054842 -1.766697
2008-05-27 07:12:33 51°13.986 2°55.518 19.6775 0.009792 0.054843 -1.766697
2008-05-27 07:12:38 51°13.993 2°55.513 19.6714 0.009792 0.054843 -1.766697
2008-05-27 07:12:43 51°14.001 2°55.507 19.6821 0.009792 0.054843 -1.766697
2008-05-27 07:12:48 51°14.009 2°55.502 19.6736 0.009792 0.054843 -1.766697
2008-05-27 07:12:53 51°14.017 2°55.497 19.6926 0.009792 0.054843 -1.766697
2008-05-27 07:12:58 51°14.025 2°55.491 19.6962 0.009792 0.054843 -1.766697
2008-05-27 07:13:03 51°14.032 2°55.486 19.6983 0.009792 0.054843 -1.766697
2008-05-27 07:13:08 51°14.04 2°55.48 19.6989 0.009792 0.054844 -1.766697
2008-05-27 07:13:13 51°14.048 2°55.475 19.6976 0.009792 0.054844 -1.766697
2008-05-27 07:13:18 51°14.056 2°55.469 19.6928 0.009792 0.054844 -1.766697
2008-05-27 07:13:23 51°14.064 2°55.463 19.672 0.009792 0.054844 -1.766697
2008-05-27 07:13:27 51°14.07 2°55.458 19.6526 0.009792 0.054844 -1.766697
2008-05-27 07:13:33 51°14.08 2°55.451 19.6528 0.009792 0.054844 -1.766697
2008-05-27 07:13:38 51°14.088 2°55.445 19.6733 0.009792 0.054844 -1.766697
2008-05-27 07:13:43 51°14.096 2°55.439 19.6875 0.009792 0.054844 -1.766697
2008-05-27 07:13:48 51°14.104 2°55.434 19.6823 0.009792 0.054844 -1.766697
2008-05-27 07:13:53 51°14.112 2°55.428 19.6956 0.009792 0.054844 -1.766697
2008-05-27 07:13:59 51°14.122 2°55.421 19.6726 0.009792 0.054844 -1.766697
2008-05-27 07:14:04 51°14.13 2°55.415 19.6753 0.009792 0.054844 -1.766697
2008-05-27 07:14:09 51°14.138 2°55.408 19.6735 0.009792 0.054844 -1.766697
2008-05-27 07:14:15 51°14.148 2°55.401 19.6801 0.009792 0.054844 -1.766697
2008-05-27 07:14:20 51°14.156 2°55.395 19.6872 0.009792 0.054844 -1.766697
2008-05-27 07:14:26 51°14.165 2°55.386 19.6859 0.009792 0.054844 -1.766697
2008-05-27 07:14:31 51°14.173 2°55.379 19.6797 0.009792 0.054844 -1.766697
2008-05-27 07:14:36 51°14.181 2°55.372 19.6924 0.009792 0.054844 -1.766697
2008-05-27 07:14:41 51°14.189 2°55.365 19.6765 0.009792 0.054845 -1.766697
2008-05-27 07:14:46 51°14.196 2°55.357 19.6382 0.009792 0.054845 -1.766697
2008-05-27 07:14:51 51°14.203 2°55.348 19.6556 0.009792 0.054845 -1.766697
2008-05-27 07:14:56 51°14.211 2°55.339 19.6802 0.009792 0.054844 -1.766697
2008-05-27 07:15:01 51°14.217 2°55.33 19.6746 0.009792 0.054845 -1.766697
2008-05-27 07:15:06 51°14.224 2°55.32 19.6686 0.009792 0.054845 -1.766697
2008-05-27 07:15:11 51°14.231 2°55.31 19.67 0.009792 0.054846 -1.766697
2008-05-27 07:15:16 51°14.237 2°55.299 19.6531 0.009792 0.054846 -1.766697
2008-05-27 07:15:21 51°14.244 2°55.289 19.6693 0.009792 0.054845 -1.766697
2008-05-27 07:15:26 51°14.251 2°55.277 19.6767 0.009792 0.054846 -1.766697
2008-05-27 07:15:31 51°14.258 2°55.265 19.6447 0.009792 0.054846 -1.766697
2008-05-27 07:15:36 51°14.265 2°55.253 19.657 0.009792 0.054846 -1.766697
2008-05-27 07:15:40 51°14.271 2°55.242 19.6428 0.009792 0.054846 -1.766697
2008-05-27 07:15:45 51°14.28 2°55.228 19.6443 0.009792 0.054846 -1.766697
2008-05-27 07:15:50 51°14.288 2°55.214 19.6134 0.009792 0.054846 -1.766697
2008-05-27 07:15:55 51°14.296 2°55.198 19.6107 0.009792 0.054846 -1.766697
2008-05-27 07:16:00 51°14.304 2°55.183 19.6417 0.009792 0.054846 -1.766697
2008-05-27 07:16:05 51°14.313 2°55.167 19.6395 0.009792 0.054846 -1.766697
2008-05-27 07:16:10 51°14.321 2°55.151 19.6068 0.009792 0.054846 -1.766697
2008-05-27 07:16:15 51°14.33 2°55.134 19.5983 0.009792 0.054846 -1.766697
2008-05-27 07:16:20 51°14.338 2°55.117 19.5937 0.009792 0.054846 -1.766697
2008-05-27 07:16:25 51°14.347 2°55.1 19.6084 0.009792 0.054846 -1.766697
2008-05-27 07:16:31 51°14.358 2°55.08 19.6222 0.009792 0.054846 -1.766697
2008-05-27 07:16:35 51°14.366 2°55.066 19.6161 0.009792 0.054847 -1.766697
2008-05-27 07:16:41 51°14.379 2°55.046 19.6029 0.009792 0.054847 -1.766697
2008-05-27 07:16:46 51°14.391 2°55.029 19.5921 0.009792 0.054847 -1.766697
2008-05-27 07:16:51 51°14.402 2°55.012 19.597 0.009792 0.054848 -1.766697
2008-05-27 07:16:56 51°14.414 2°54.995 19.6086 0.009792 0.054848 -1.766697
2008-05-27 07:17:00 51°14.424 2°54.982 19.5898 0.009792 0.054848 -1.766697
2008-05-27 07:17:06 51°14.439 2°54.962 19.6153 0.009792 0.054848 -1.766697
2008-05-27 07:17:11 51°14.452 2°54.945 19.6122 0.009792 0.054848 -1.766697
2008-05-27 07:17:15 51°14.463 2°54.931 19.6054 0.009792 0.054848 -1.766697
2008-05-27 07:17:20 51°14.476 2°54.915 19.5788 0.009792 0.05485 -1.766697
2008-05-27 07:17:25 51°14.489 2°54.899 19.6 0.009792 0.054851 -1.766697
2008-05-27 07:17:30 51°14.503 2°54.884 19.5806 0.009792 0.054852 -1.766697
2008-05-27 07:17:35 51°14.517 2°54.869 19.5836 0.009792 0.054854 -1.766697
2008-05-27 07:17:40 51°14.531 2°54.855 19.5805 0.009792 0.054856 -1.766697
2008-05-27 07:17:45 51°14.545 2°54.842 19.5789 0.009792 0.054856 -1.766697
2008-05-27 07:17:50 51°14.56 2°54.829 19.5845 0.009792 0.054857 -1.766697
2008-05-27 07:17:55 51°14.575 2°54.816 19.6017 0.009792 0.054859 -1.766697
2008-05-27 07:18:00 51°14.59 2°54.803 19.5931 0.009792 0.054861 -1.766697
2008-05-27 07:18:04 51°14.602 2°54.793 19.6012 0.009792 0.054862 -1.766697
2008-05-27 07:18:09 51°14.616 2°54.78 19.6027 0.009792 0.054864 -1.766697
2008-05-27 07:18:15 51°14.634 2°54.764 19.6042 0.009792 0.054864 -1.766697
2008-05-27 07:18:19 51°14.646 2°54.754 19.6102 0.009792 0.054866 -1.766697
2008-05-27 07:18:24 51°14.66 2°54.739 19.6032 0.009792 0.054868 -1.766697
2008-05-27 07:18:29 51°14.674 2°54.724 19.5978 0.009792 0.054869 -1.766697
2008-05-27 07:18:34 51°14.688 2°54.709 19.6119 0.009792 0.05487 -1.766697
2008-05-27 07:18:39 51°14.701 2°54.695 19.6073 0.009792 0.054871 -1.766697
2008-05-27 07:18:44 51°14.715 2°54.68 19.5999 0.009792 0.054871 -1.766697
2008-05-27 07:18:49 51°14.729 2°54.665 19.6042 0.009792 0.054872 -1.766697
2008-05-27 07:18:54 51°14.742 2°54.649 19.6017 0.009792 0.054875 -1.766697
2008-05-27 07:18:59 51°14.756 2°54.633 19.604 0.009792 0.054876 -1.766697
2008-05-27 07:19:03 51°14.767 2°54.621 19.6043 0.009792 0.054877 -1.766697
2008-05-27 07:19:08 51°14.78 2°54.606 19.6034 0.009792 0.054879 -1.766697
2008-05-27 07:19:13 51°14.794 2°54.591 19.5966 0.009792 0.054879 -1.766697
2008-05-27 07:19:18 51°14.808 2°54.576 19.5841 0.009792 0.054879 -1.766697
2008-05-27 07:19:23 51°14.822 2°54.561 19.5937 0.009792 0.05488 -1.766697
2008-05-27 07:19:28 51°14.836 2°54.547 19.6029 0.009792 0.054881 -1.766697
2008-05-27 07:19:33 51°14.851 2°54.534 19.5866 0.009792 0.054883 -1.766697
2008-05-27 07:19:38 51°14.865 2°54.52 19.5913 0.009792 0.054885 -1.766697
2008-05-27 07:19:43 51°14.88 2°54.507 19.5869 0.009792 0.054885 -1.766697
2008-05-27 07:19:48 51°14.895 2°54.494 19.5831 0.009792 0.054885 -1.766697
2008-05-27 07:19:53 51°14.91 2°54.481 19.5816 0.009792 0.054887 -1.766697
2008-05-27 07:19:58 51°14.925 2°54.468 19.5943 0.009792 0.054888 -1.766697
2008-05-27 07:20:03 51°14.94 2°54.455 19.5852 0.009792 0.054889 -1.766697
2008-05-27 07:20:08 51°14.954 2°54.442 19.6005 0.009792 0.05489 -1.766697
2008-05-27 07:20:12 51°14.966 2°54.431 19.6061 0.009792 0.05489 -1.766697
2008-05-27 07:20:18 51°14.983 2°54.414 19.6078 0.009792 0.054891 -1.766697
2008-05-27 07:20:22 51°14.995 2°54.404 19.6012 0.009792 0.054893 -1.766697
2008-05-27 07:20:28 51°15.012 2°54.387 19.6089 0.009792 0.054893 -1.731873
2008-05-27 07:20:32 51°15.023 2°54.375 19.5972 0.009792 0.054894 -1.766697
2008-05-27 07:20:38 51°15.04 2°54.358 19.597 0.009792 0.054895 -1.766697
2008-05-27 07:20:43 51°15.054 2°54.344 19.5934 0.009792 0.054895 -1.766697
2008-05-27 07:20:47 51°15.066 2°54.332 19.5962 0.009792 0.054895 -1.731873
2008-05-27 07:20:52 51°15.081 2°54.319 19.6106 0.009792 0.054896 -1.731873
2008-05-27 07:20:58 51°15.097 2°54.302 19.5944 0.009792 0.054897 -1.766697
2008-05-27 07:21:03 51°15.112 2°54.288 19.5911 0.009792 0.054897 -1.766697
2008-05-27 07:21:07 51°15.123 2°54.276 19.592 0.009792 0.054898 -1.766697
2008-05-27 07:21:12 51°15.137 2°54.262 19.5927 0.009792 0.054898 -1.766697
2008-05-27 07:21:18 51°15.155 2°54.246 19.605 0.009792 0.054899 -1.766697
2008-05-27 07:21:23 51°15.169 2°54.232 19.6064 0.009792 0.054899 -1.766697
2008-05-27 07:21:27 51°15.181 2°54.222 19.6046 0.009792 0.0549 -1.766697
2008-05-27 07:21:32 51°15.195 2°54.21 19.6031 0.009792 0.054901 -1.766697
2008-05-27 07:21:38 51°15.213 2°54.194 19.6077 0.009792 0.054901 -1.766697
2008-05-27 07:21:43 51°15.228 2°54.182 19.6108 0.009792 0.054901 -1.766697
2008-05-27 07:21:48 51°15.243 2°54.169 19.6102 0.009792 0.054902 -1.766697
2008-05-27 07:21:52 51°15.255 2°54.159 19.5978 0.009792 0.054903 -1.731873
2008-05-27 07:21:58 51°15.272 2°54.143 19.6054 0.009792 0.054903 -1.766697
2008-05-27 07:22:03 51°15.287 2°54.13 19.5943 0.009792 0.054904 -1.766697
2008-05-27 07:22:07 51°15.298 2°54.119 19.5995 0.009792 0.054905 -1.766697
2008-05-27 07:22:12 51°15.313 2°54.105 19.6047 0.009792 0.054905 -1.766697
2008-05-27 07:22:18 51°15.331 2°54.09 19.6063 0.009792 0.054905 -1.766697
2008-05-27 07:22:23 51°15.346 2°54.077 19.6002 0.009792 0.054906 -1.766697
2008-05-27 07:22:28 51°15.36 2°54.064 19.6109 0.009792 0.054907 -1.766697
2008-05-27 07:22:32 51°15.372 2°54.054 19.6073 0.009792 0.054907 -1.766697
2008-05-27 07:22:38 51°15.39 2°54.039 19.6124 0.009792 0.054908 -1.766697
2008-05-27 07:22:43 51°15.405 2°54.026 19.6143 0.009792 0.054908 -1.766697
2008-05-27 07:22:47 51°15.417 2°54.016 19.6004 0.009792 0.054909 -1.766697
2008-05-27 07:22:52 51°15.432 2°54.003 19.6093 0.009792 0.054909 -1.766697
2008-05-27 07:22:58 51°15.45 2°53.988 19.6027 0.009792 0.05491 -1.731873
2008-05-27 07:23:03 51°15.465 2°53.976 19.6032 0.009792 0.054911 -1.766697
2008-05-27 07:23:07 51°15.477 2°53.966 19.6011 0.009792 0.054911 -1.766697
2008-05-27 07:23:12 51°15.492 2°53.954 19.6179 0.009792 0.054911 -1.766697
2008-05-27 07:23:18 51°15.51 2°53.939 19.617 0.009792 0.054911 -1.766697
2008-05-27 07:23:23 51°15.526 2°53.927 19.6024 0.009792 0.054912 -1.766697
2008-05-27 07:23:27 51°15.537 2°53.917 19.6102 0.009792 0.054913 -1.766697
2008-05-27 07:23:32 51°15.553 2°53.904 19.6148 0.009792 0.054913 -1.766697
2008-05-27 07:23:38 51°15.571 2°53.89 19.614 0.009792 0.054914 -1.766697
2008-05-27 07:23:43 51°15.586 2°53.878 19.6062 0.009792 0.054914 -1.766697
2008-05-27 07:23:48 51°15.601 2°53.865 19.616 0.009792 0.054914 -1.766697
2008-05-27 07:23:52 51°15.613 2°53.855 19.6081 0.009792 0.054915 -1.766697
2008-05-27 07:23:57 51°15.628 2°53.843 19.6148 0.009792 0.054916 -1.766697
2008-05-27 07:24:03 51°15.647 2°53.828 19.6103 0.009792 0.054916 -1.766697
2008-05-27 07:24:08 51°15.662 2°53.816 19.6139 0.009792 0.054916 -1.766697
2008-05-27 07:24:12 51°15.674 2°53.806 19.61 0.009792 0.054916 -1.766697
2008-05-27 07:24:18 51°15.692 2°53.79 19.6171 0.009792 0.054916 -1.766697
2008-05-27 07:24:23 51°15.707 2°53.777 19.6158 0.009792 0.054918 -1.766697
2008-05-27 07:24:27 51°15.719 2°53.767 19.621 0.009792 0.054917 -1.766697
2008-05-27 07:24:32 51°15.734 2°53.753 19.6231 0.009792 0.054917 -1.766697
2008-05-27 07:24:38 51°15.752 2°53.738 19.6152 0.009792 0.054918 -1.766697
2008-05-27 07:24:43 51°15.766 2°53.724 19.6096 0.009792 0.054918 -1.766697
2008-05-27 07:24:48 51°15.782 2°53.711 19.6186 0.009792 0.054918 -1.766697
2008-05-27 07:24:52 51°15.794 2°53.701 19.6129 0.009792 0.054918 -1.766697
2008-05-27 07:24:58 51°15.812 2°53.686 19.6107 0.009792 0.054918 -1.766697
2008-05-27 07:25:03 51°15.827 2°53.673 19.6137 0.009792 0.054918 -1.766697
2008-05-27 07:25:07 51°15.839 2°53.664 19.6218 0.009792 0.054918 -1.766697
2008-05-27 07:25:13 51°15.857 2°53.649 19.6194 0.009792 0.054918 -1.766697
2008-05-27 07:25:18 51°15.872 2°53.637 19.6212 0.009792 0.054919 -1.731873
2008-05-27 07:25:23 51°15.887 2°53.624 19.6185 0.009792 0.054919 -1.766697
2008-05-27 07:25:27 51°15.899 2°53.615 19.6208 0.009792 0.05492 -1.766697
2008-05-27 07:25:32 51°15.914 2°53.602 19.6127 0.009792 0.05492 -1.766697
2008-05-27 07:25:38 51°15.932 2°53.588 19.6131 0.009792 0.054922 -1.766697
2008-05-27 07:25:43 51°15.947 2°53.575 19.6178 0.009792 0.054922 -1.766697
2008-05-27 07:25:48 51°15.961 2°53.563 19.6201 0.009792 0.054922 -1.766697
2008-05-27 07:25:52 51°15.973 2°53.554 19.6216 0.009792 0.054923 -1.731873
2008-05-27 07:25:58 51°15.991 2°53.539 19.6246 0.009792 0.054924 -1.766697
2008-05-27 07:26:03 51°16.006 2°53.527 19.6209 0.009792 0.054924 -1.766697
2008-05-27 07:26:07 51°16.017 2°53.517 19.6268 0.009792 0.054924 -1.766697
2008-05-27 07:26:12 51°16.032 2°53.504 19.6265 0.009792 0.054924 -1.766697
2008-05-27 07:26:17 51°16.047 2°53.491 19.6289 0.009792 0.054925 -1.766697
2008-05-27 07:26:22 51°16.062 2°53.478 19.6316 0.009792 0.054926 -1.766697
2008-05-27 07:26:28 51°16.08 2°53.463 19.6288 0.009792 0.054926 -1.766697
2008-05-27 07:26:32 51°16.092 2°53.453 19.6349 0.009792 0.054926 -1.766697
2008-05-27 07:26:37 51°16.107 2°53.441 19.6274 0.009792 0.054926 -1.766697
2008-05-27 07:26:43 51°16.125 2°53.426 19.6245 0.009792 0.054926 -1.766697
2008-05-27 07:26:48 51°16.14 2°53.414 19.6279 0.009792 0.054927 -1.731873
2008-05-27 07:26:53 51°16.155 2°53.401 19.6336 0.009792 0.054927 -1.766697
2008-05-27 07:26:58 51°16.17 2°53.389 19.6235 0.009792 0.054928 -1.731873
2008-05-27 07:27:03 51°16.185 2°53.376 19.6296 0.009792 0.054928 -1.766697
2008-05-27 07:27:08 51°16.2 2°53.363 19.6337 0.009792 0.054928 -1.731873
2008-05-27 07:27:12 51°16.212 2°53.351 19.6345 0.009792 0.054928 -1.731873
2008-05-27 07:27:17 51°16.227 2°53.337 19.6346 0.009792 0.054928 -1.766697
2008-05-27 07:27:23 51°16.245 2°53.322 19.6342 0.009792 0.054928 -1.766697
2008-05-27 07:27:28 51°16.26 2°53.31 19.6345 0.009792 0.054928 -1.766697
2008-05-27 07:27:33 51°16.275 2°53.297 19.6376 0.009792 0.054928 -1.766697
2008-05-27 07:27:38 51°16.29 2°53.285 19.6321 0.009792 0.054928 -1.731873
2008-05-27 07:27:43 51°16.304 2°53.273 19.6305 0.009792 0.054928 -1.731873
2008-05-27 07:27:47 51°16.316 2°53.263 19.6341 0.009792 0.054929 -1.766697
2008-05-27 07:27:52 51°16.331 2°53.25 19.6349 0.009792 0.054929 -1.766697
2008-05-27 07:27:58 51°16.349 2°53.234 19.6342 0.009792 0.054929 -1.766697
2008-05-27 07:28:03 51°16.363 2°53.221 19.6322 0.009792 0.05493 -1.766697
2008-05-27 07:28:07 51°16.375 2°53.211 19.641 0.009792 0.05493 -1.766697
2008-05-27 07:28:12 51°16.39 2°53.198 19.6408 0.009792 0.05493 -1.766697
2008-05-27 07:28:17 51°16.405 2°53.186 19.6397 0.009792 0.05493 -1.766697
2008-05-27 07:28:23 51°16.422 2°53.171 19.646 0.009792 0.05493 -1.766697
2008-05-27 07:28:28 51°16.437 2°53.16 19.644 0.009792 0.05493 -1.766697
2008-05-27 07:28:32 51°16.45 2°53.149 19.6357 0.009792 0.054931 -1.766697
2008-05-27 07:28:37 51°16.465 2°53.137 19.6414 0.009792 0.054932 -1.766697
2008-05-27 07:28:43 51°16.483 2°53.122 19.6337 0.009792 0.054932 -1.766697
2008-05-27 07:28:48 51°16.498 2°53.109 19.6343 0.009792 0.054932 -1.766697
2008-05-27 07:28:52 51°16.51 2°53.099 19.6353 0.009792 0.054932 -1.766697
2008-05-27 07:28:58 51°16.528 2°53.085 19.6413 0.009792 0.054932 -1.766697
2008-05-27 07:29:03 51°16.543 2°53.073 19.6454 0.009792 0.054933 -1.766697
2008-05-27 07:29:08 51°16.557 2°53.061 19.6396 0.009792 0.054934 -1.766697
2008-05-27 07:29:12 51°16.569 2°53.051 19.6437 0.009792 0.054934 -1.766697
2008-05-27 07:29:17 51°16.584 2°53.039 19.6383 0.009792 0.054934 -1.766697
2008-05-27 07:29:23 51°16.602 2°53.024 19.6458 0.009792 0.054934 -1.766697
2008-05-27 07:29:28 51°16.617 2°53.011 19.6378 0.009792 0.054934 -1.766697
2008-05-27 07:29:33 51°16.632 2°52.998 19.6391 0.009792 0.054934 -1.766697
2008-05-27 07:29:38 51°16.647 2°52.985 19.6469 0.009792 0.054935 -1.766697
2008-05-27 07:29:43 51°16.662 2°52.973 19.6422 0.009792 0.054935 -1.766697
2008-05-27 07:29:47 51°16.673 2°52.963 19.6448 0.009792 0.054935 -1.766697
2008-05-27 07:29:53 51°16.691 2°52.948 19.6502 0.009792 0.054935 -1.766697
2008-05-27 07:29:58 51°16.705 2°52.935 19.6484 0.009792 0.054936 -1.766697
2008-05-27 07:30:03 51°16.72 2°52.922 19.6471 0.009792 0.054936 -1.766697
2008-05-27 07:30:07 51°16.732 2°52.912 19.6494 0.009792 0.054937 -1.766697
2008-05-27 07:30:12 51°16.747 2°52.899 19.6458 0.009792 0.054937 -1.766697
2008-05-27 07:30:18 51°16.765 2°52.883 19.6486 0.009792 0.054936 -1.766697
2008-05-27 07:30:23 51°16.779 2°52.87 19.6429 0.009792 0.054936 -1.766697
2008-05-27 07:30:28 51°16.795 2°52.857 19.6489 0.009792 0.054936 -1.766697
2008-05-27 07:30:32 51°16.807 2°52.847 19.6566 0.009792 0.054936 -1.766697
2008-05-27 07:30:38 51°16.824 2°52.832 19.6476 0.009792 0.054937 -1.766697
2008-05-27 07:30:43 51°16.84 2°52.82 19.6569 0.009792 0.054937 -1.766697
2008-05-27 07:30:47 51°16.852 2°52.811 19.6518 0.009792 0.054938 -1.731873
2008-05-27 07:30:52 51°16.867 2°52.799 19.6509 0.009792 0.054938 -1.766697
2008-05-27 07:30:58 51°16.884 2°52.784 19.6503 0.009792 0.054938 -1.766697
2008-05-27 07:31:02 51°16.896 2°52.774 19.6498 0.009792 0.054938 -1.731873
2008-05-27 07:31:08 51°16.915 2°52.759 19.6541 0.009792 0.054938 -1.766697
2008-05-27 07:31:12 51°16.927 2°52.749 19.6521 0.009792 0.054938 -1.766697
2008-05-27 07:31:17 51°16.942 2°52.737 19.6519 0.009792 0.054938 -1.766697
2008-05-27 07:31:22 51°16.957 2°52.725 19.6586 0.009792 0.05494 -1.766697
2008-05-27 07:31:28 51°16.975 2°52.71 19.6655 0.009792 0.054939 -1.731873
2008-05-27 07:31:32 51°16.987 2°52.7 19.6618 0.009792 0.05494 -1.766697
2008-05-27 07:31:38 51°17.005 2°52.686 19.6613 0.009792 0.05494 -1.766697
2008-05-27 07:31:43 51°17.02 2°52.673 19.6649 0.009792 0.05494 -1.766697
2008-05-27 07:31:47 51°17.033 2°52.663 19.6587 0.009792 0.054941 -1.766697
2008-05-27 07:31:53 51°17.05 2°52.648 19.6557 0.009792 0.05494 -1.766697
2008-05-27 07:31:58 51°17.065 2°52.636 19.6598 0.009792 0.054941 -1.731873
2008-05-27 07:32:03 51°17.08 2°52.623 19.6617 0.009792 0.054942 -1.766697
2008-05-27 07:32:07 51°17.092 2°52.614 19.6608 0.009792 0.054942 -1.766697
2008-05-27 07:32:12 51°17.107 2°52.601 19.6649 0.009792 0.054942 -1.766697
2008-05-27 07:32:18 51°17.126 2°52.588 19.6662 0.009792 0.054942 -1.766697
2008-05-27 07:32:23 51°17.141 2°52.576 19.6632 0.009792 0.054942 -1.766697
2008-05-27 07:32:27 51°17.153 2°52.568 19.6644 0.009792 0.054942 -1.766697
2008-05-27 07:32:32 51°17.169 2°52.558 19.6642 0.009792 0.054943 -1.766697
2008-05-27 07:32:38 51°17.188 2°52.547 19.6671 0.009792 0.054944 -1.766697
2008-05-27 07:32:43 51°17.204 2°52.537 19.6666 0.009792 0.054944 -1.766697
2008-05-27 07:32:47 51°17.218 2°52.532 19.6656 0.009792 0.054944 -1.766697
2008-05-27 07:32:52 51°17.234 2°52.525 19.6613 0.009792 0.054945 -1.766697
2008-05-27 07:32:58 51°17.254 2°52.517 19.6634 0.009792 0.054945 -1.766697
2008-05-27 07:33:03 51°17.27 2°52.511 19.6664 0.009792 0.054947 -1.766697
2008-05-27 07:33:07 51°17.283 2°52.507 19.6652 0.009792 0.054946 -1.766697
2008-05-27 07:33:12 51°17.3 2°52.501 19.6649 0.009792 0.054946 -1.766697
2008-05-27 07:33:17 51°17.317 2°52.498 19.6701 0.009792 0.054947 -1.766697
2008-05-27 07:33:23 51°17.337 2°52.493 19.6663 0.009792 0.054948 -1.766697
2008-05-27 07:33:28 51°17.355 2°52.49 19.6681 0.009792 0.054949 -1.766697
2008-05-27 07:33:32 51°17.368 2°52.488 19.6733 0.009792 0.054949 -1.766697
2008-05-27 07:33:38 51°17.389 2°52.485 19.6741 0.009792 0.054949 -1.766697
2008-05-27 07:33:43 51°17.406 2°52.483 19.6741 0.009792 0.054949 -1.766697
2008-05-27 07:33:47 51°17.42 2°52.483 19.6711 0.009792 0.054949 -1.766697
2008-05-27 07:33:52 51°17.437 2°52.481 19.6747 0.009792 0.05495 -1.731873
2008-05-27 07:33:58 51°17.458 2°52.48 19.6725 0.009792 0.054951 -1.766697
2008-05-27 07:34:03 51°17.475 2°52.478 19.671 0.009792 0.054951 -1.766697
2008-05-27 07:34:07 51°17.489 2°52.478 19.68 0.009792 0.054951 -1.766697
2008-05-27 07:34:12 51°17.507 2°52.477 19.6788 0.009792 0.054951 -1.766697
2008-05-27 07:34:18 51°17.527 2°52.476 19.6735 0.009792 0.054951 -1.766697
2008-05-27 07:34:23 51°17.545 2°52.474 19.681 0.009792 0.054951 -1.731873
2008-05-27 07:34:27 51°17.558 2°52.473 19.6804 0.009792 0.054951 -1.766697
2008-05-27 07:34:32 51°17.576 2°52.472 19.6771 0.009792 0.054951 -1.766697
2008-05-27 07:34:38 51°17.596 2°52.469 19.6787 0.009792 0.054951 -1.766697
2008-05-27 07:34:43 51°17.613 2°52.468 19.6756 0.009792 0.054951 -1.766697
2008-05-27 07:34:48 51°17.631 2°52.465 19.6734 0.009792 0.054951 -1.766697
2008-05-27 07:34:52 51°17.645 2°52.462 19.6809 0.009792 0.054951 -1.801521
2008-05-27 07:34:58 51°17.665 2°52.459 19.6817 0.009792 0.054951 -1.766697
2008-05-27 07:35:03 51°17.682 2°52.457 19.6806 0.009792 0.054951 -1.766697
2008-05-27 07:35:07 51°17.696 2°52.455 19.6818 0.009792 0.054951 -1.766697
2008-05-27 07:35:12 51°17.713 2°52.452 19.6787 0.009792 0.054951 -1.766697
2008-05-27 07:35:18 51°17.733 2°52.451 19.6797 0.009792 0.054951 -1.766697
2008-05-27 07:35:23 51°17.75 2°52.449 19.68 0.009792 0.054951 -1.731873
2008-05-27 07:35:28 51°17.767 2°52.448 19.6783 0.009792 0.054951 -1.766697
2008-05-27 07:35:32 51°17.781 2°52.446 19.6796 0.009792 0.054952 -1.731873
2008-05-27 07:35:37 51°17.798 2°52.446 19.6793 0.009792 0.054952 -1.766697
2008-05-27 07:35:43 51°17.819 2°52.445 19.6776 0.009792 0.054952 -1.766697
2008-05-27 07:35:48 51°17.836 2°52.444 19.6905 0.009792 0.054952 -1.731873
2008-05-27 07:35:53 51°17.852 2°52.443 19.688 0.009792 0.054952 -1.731873
2008-05-27 07:35:58 51°17.869 2°52.444 19.6859 0.009792 0.054953 -1.731873
2008-05-27 07:36:03 51°17.886 2°52.445 19.6889 0.009792 0.054954 -1.731873
2008-05-27 07:36:08 51°17.903 2°52.446 19.6855 0.009792 0.054955 -1.731873
2008-05-27 07:36:12 51°17.916 2°52.447 19.6853 0.009792 0.054955 -1.731873
2008-05-27 07:36:18 51°17.937 2°52.449 19.686 0.009792 0.054955 -1.731873
2008-05-27 07:36:23 51°17.954 2°52.45 19.6848 0.009792 0.054955 -1.731873
2008-05-27 07:36:28 51°17.972 2°52.451 19.6882 0.009792 0.054956 -1.731873
2008-05-27 07:36:33 51°17.989 2°52.452 19.6875 0.009792 0.054956 -1.731873
2008-05-27 07:36:38 51°18.006 2°52.454 19.6897 0.009792 0.054957 -1.731873
2008-05-27 07:36:43 51°18.023 2°52.457 19.6873 0.009792 0.054957 -1.731873
2008-05-27 07:36:48 51°18.039 2°52.462 19.6846 0.009792 0.054957 -1.731873
2008-05-27 07:36:53 51°18.056 2°52.468 19.6891 0.009792 0.054958 -1.731873
2008-05-27 07:36:58 51°18.073 2°52.474 19.6891 0.009792 0.054959 -1.731873
2008-05-27 07:37:03 51°18.09 2°52.481 19.6898 0.009792 0.054959 -1.697049
2008-05-27 07:37:08 51°18.107 2°52.489 19.692 0.009792 0.054959 -1.766697
2008-05-27 07:37:12 51°18.12 2°52.494 19.6895 0.009792 0.054959 -1.766697
2008-05-27 07:37:18 51°18.139 2°52.504 19.699 0.009792 0.054959 -1.731873
2008-05-27 07:37:23 51°18.155 2°52.513 19.6939 0.009792 0.054959 -1.731873
2008-05-27 07:37:28 51°18.172 2°52.521 19.6921 0.009792 0.05496 -1.766697
2008-05-27 07:37:32 51°18.184 2°52.528 19.6956 0.009792 0.054961 -1.697049
2008-05-27 07:37:37 51°18.201 2°52.536 19.6963 0.009792 0.05496 -1.731873
2008-05-27 07:37:43 51°18.22 2°52.547 19.6985 0.009792 0.05496 -1.731873
2008-05-27 07:37:48 51°18.236 2°52.555 19.7009 0.009792 0.054961 -1.731873
2008-05-27 07:37:52 51°18.249 2°52.563 19.6987 0.009792 0.054961 -1.766697
2008-05-27 07:37:58 51°18.269 2°52.573 19.7036 0.009792 0.054961 -1.731873
2008-05-27 07:38:03 51°18.285 2°52.583 19.6985 0.009792 0.054961 -1.731873
2008-05-27 07:38:08 51°18.302 2°52.591 19.7024 0.009792 0.054961 -1.731873
2008-05-27 07:38:12 51°18.315 2°52.598 19.705 0.009792 0.054961 -1.731873
2008-05-27 07:38:18 51°18.333 2°52.609 19.7038 0.009792 0.054961 -1.731873
2008-05-27 07:38:23 51°18.349 2°52.617 19.6982 0.009792 0.054961 -1.731873
2008-05-27 07:38:28 51°18.365 2°52.626 19.699 0.009792 0.054961 -1.766697
2008-05-27 07:38:33 51°18.381 2°52.634 19.7003 0.009792 0.054962 -1.731873
2008-05-27 07:38:38 51°18.396 2°52.642 19.7032 0.009792 0.054963 -1.731873
2008-05-27 07:38:43 51°18.412 2°52.65 19.7061 0.009792 0.054963 -1.731873
2008-05-27 07:38:47 51°18.425 2°52.657 19.7093 0.009792 0.054963 -1.731873
2008-05-27 07:38:52 51°18.441 2°52.666 19.7034 0.009792 0.054963 -1.731873
2008-05-27 07:38:58 51°18.461 2°52.675 19.7032 0.009792 0.054963 -1.731873
2008-05-27 07:39:03 51°18.477 2°52.684 19.7057 0.009792 0.054963 -1.731873
2008-05-27 07:39:07 51°18.49 2°52.689 19.7076 0.009792 0.054963 -1.731873
2008-05-27 07:39:12 51°18.506 2°52.698 19.7043 0.009792 0.054963 -1.731873
2008-05-27 07:39:18 51°18.526 2°52.707 19.7055 0.009792 0.054963 -1.731873
2008-05-27 07:39:23 51°18.543 2°52.716 19.7047 0.009792 0.054963 -1.731873
2008-05-27 07:39:28 51°18.559 2°52.724 19.7027 0.009792 0.054963 -1.731873
2008-05-27 07:39:32 51°18.572 2°52.731 19.7104 0.009792 0.054963 -1.766697
2008-05-27 07:39:38 51°18.592 2°52.743 19.7086 0.009792 0.054963 -1.731873
2008-05-27 07:39:43 51°18.608 2°52.752 19.7121 0.009792 0.054963 -1.731873
2008-05-27 07:39:47 51°18.621 2°52.76 19.7145 0.009792 0.054963 -1.731873
2008-05-27 07:39:52 51°18.637 2°52.77 19.7103 0.009792 0.054963 -1.731873
2008-05-27 07:39:58 51°18.656 2°52.783 19.7137 0.009792 0.054963 -1.731873
2008-05-27 07:40:03 51°18.672 2°52.793 19.709 0.009792 0.054963 -1.731873
2008-05-27 07:40:08 51°18.688 2°52.804 19.7101 0.009792 0.054964 -1.731873
2008-05-27 07:40:12 51°18.701 2°52.813 19.713 0.009792 0.054964 -1.731873
2008-05-27 07:40:17 51°18.716 2°52.824 19.7132 0.009792 0.054963 -1.731873
2008-05-27 07:40:23 51°18.736 2°52.837 19.7156 0.009792 0.054964 -1.731873
2008-05-27 07:40:28 51°18.752 2°52.848 19.7159 0.009792 0.054964 -1.731873
2008-05-27 07:40:33 51°18.768 2°52.858 19.7167 0.009792 0.054964 -1.731873
2008-05-27 07:40:38 51°18.784 2°52.869 19.7122 0.009792 0.054964 -1.731873
2008-05-27 07:40:43 51°18.8 2°52.879 19.7133 0.009792 0.054964 -1.731873
2008-05-27 07:40:48 51°18.816 2°52.89 19.7139 0.009792 0.054964 -1.731873
2008-05-27 07:40:52 51°18.829 2°52.9 19.7106 0.009792 0.054964 -1.731873
2008-05-27 07:40:58 51°18.849 2°52.912 19.7178 0.009792 0.054964 -1.731873
2008-05-27 07:41:03 51°18.864 2°52.923 19.7195 0.009792 0.054964 -1.731873
2008-05-27 07:41:08 51°18.88 2°52.933 19.7196 0.009792 0.054964 -1.731873
2008-05-27 07:41:13 51°18.896 2°52.944 19.7216 0.009792 0.054964 -1.731873
2008-05-27 07:41:18 51°18.912 2°52.954 19.7149 0.009792 0.054965 -1.731873
2008-05-27 07:41:23 51°18.928 2°52.965 19.7161 0.009792 0.054965 -1.766697
2008-05-27 07:41:27 51°18.941 2°52.973 19.7165 0.009792 0.054965 -1.731873
2008-05-27 07:41:32 51°18.957 2°52.983 19.7244 0.009792 0.054965 -1.731873
2008-05-27 07:41:38 51°18.976 2°52.995 19.7248 0.009792 0.054965 -1.766697
2008-05-27 07:41:43 51°18.992 2°53.005 19.7202 0.009792 0.054965 -1.766697
2008-05-27 07:41:47 51°19.005 2°53.013 19.7188 0.009792 0.054966 -1.731873
2008-05-27 07:41:52 51°19.021 2°53.024 19.7275 0.009792 0.054966 -1.731873
2008-05-27 07:41:57 51°19.036 2°53.034 19.7292 0.009792 0.054965 -1.766697
2008-05-27 07:42:03 51°19.054 2°53.046 19.726 0.009792 0.054966 -1.731873
2008-05-27 07:42:08 51°19.07 2°53.056 19.7247 0.009792 0.054966 -1.731873
2008-05-27 07:42:12 51°19.083 2°53.064 19.7262 0.009792 0.054966 -1.731873
2008-05-27 07:42:17 51°19.099 2°53.074 19.7271 0.009792 0.054966 -1.731873
2008-05-27 07:42:23 51°19.117 2°53.086 19.727 0.009792 0.054966 -1.766697
2008-05-27 07:42:28 51°19.134 2°53.094 19.7228 0.009792 0.054966 -1.731873
2008-05-27 07:42:32 51°19.146 2°53.101 19.7251 0.009792 0.054966 -1.731873
2008-05-27 07:42:38 51°19.166 2°53.113 19.7296 0.009792 0.054967 -1.731873
2008-05-27 07:42:43 51°19.181 2°53.124 19.7276 0.009792 0.054967 -1.731873
2008-05-27 07:42:48 51°19.197 2°53.133 19.7243 0.009792 0.054966 -1.731873
2008-05-27 07:42:52 51°19.209 2°53.143 19.7325 0.009792 0.054966 -1.731873
2008-05-27 07:42:58 51°19.228 2°53.155 19.7319 0.009792 0.054966 -1.731873
2008-05-27 07:43:03 51°19.244 2°53.167 19.732 0.009792 0.054967 -1.731873
2008-05-27 07:43:08 51°19.259 2°53.177 19.7287 0.009792 0.054967 -1.731873
2008-05-27 07:43:12 51°19.271 2°53.186 19.7281 0.009792 0.054967 -1.731873
2008-05-27 07:43:18 51°19.29 2°53.199 19.7296 0.009792 0.054967 -1.731873
2008-05-27 07:43:23 51°19.305 2°53.21 19.7323 0.009792 0.054967 -1.731873
2008-05-27 07:43:27 51°19.317 2°53.219 19.7311 0.009792 0.054967 -1.731873
2008-05-27 07:43:32 51°19.333 2°53.229 19.7374 0.009792 0.054967 -1.766697
2008-05-27 07:43:38 51°19.351 2°53.243 19.7339 0.009792 0.054968 -1.766697
2008-05-27 07:43:43 51°19.366 2°53.254 19.7355 0.009792 0.054968 -1.766697
2008-05-27 07:43:47 51°19.378 2°53.263 19.7364 0.009792 0.054968 -1.731873
2008-05-27 07:43:52 51°19.393 2°53.275 19.7356 0.009792 0.054969 -1.731873
2008-05-27 07:43:58 51°19.412 2°53.288 19.7346 0.009792 0.054969 -1.731873
2008-05-27 07:44:03 51°19.427 2°53.3 19.7395 0.009792 0.054969 -1.731873
2008-05-27 07:44:07 51°19.44 2°53.308 19.7337 0.009792 0.054969 -1.731873
2008-05-27 07:44:12 51°19.455 2°53.32 19.7357 0.009792 0.054969 -1.731873
2008-05-27 07:44:17 51°19.47 2°53.331 19.7446 0.009792 0.05497 -1.766697
2008-05-27 07:44:23 51°19.488 2°53.344 19.7407 0.009792 0.054971 -1.731873
2008-05-27 07:44:28 51°19.503 2°53.355 19.7419 0.009792 0.054971 -1.731873
2008-05-27 07:44:32 51°19.515 2°53.364 19.7428 0.009792 0.054971 -1.731873
2008-05-27 07:44:38 51°19.533 2°53.378 19.7385 0.009792 0.054971 -1.731873
2008-05-27 07:44:43 51°19.549 2°53.389 19.7448 0.009792 0.054971 -1.731873
2008-05-27 07:44:47 51°19.561 2°53.399 19.7404 0.009792 0.054972 -1.731873
2008-05-27 07:44:52 51°19.577 2°53.41 19.7444 0.009792 0.054972 -1.731873
2008-05-27 07:44:58 51°19.595 2°53.425 19.7434 0.009792 0.054972 -1.731873
2008-05-27 07:45:03 51°19.611 2°53.436 19.7454 0.009792 0.054973 -1.731873
2008-05-27 07:45:08 51°19.626 2°53.447 19.7441 0.009792 0.054973 -1.731873
2008-05-27 07:45:12 51°19.639 2°53.456 19.7448 0.009792 0.054973 -1.731873
2008-05-27 07:45:18 51°19.658 2°53.469 19.7499 0.009792 0.054972 -1.731873
2008-05-27 07:45:23 51°19.674 2°53.479 19.7506 0.009792 0.054972 -1.766697
2008-05-27 07:45:28 51°19.689 2°53.49 19.7484 0.009792 0.054972 -1.731873
2008-05-27 07:45:32 51°19.702 2°53.498 19.7458 0.009792 0.054973 -1.766697
2008-05-27 07:45:38 51°19.721 2°53.511 19.7499 0.009792 0.054973 -1.731873
2008-05-27 07:45:43 51°19.736 2°53.521 19.7496 0.009792 0.054973 -1.731873
2008-05-27 07:45:47 51°19.749 2°53.529 19.7464 0.009792 0.054973 -1.766697
2008-05-27 07:45:52 51°19.764 2°53.54 19.7468 0.009792 0.054973 -1.731873
2008-05-27 07:45:58 51°19.784 2°53.553 19.7467 0.009792 0.054974 -1.731873
2008-05-27 07:46:03 51°19.8 2°53.563 19.7468 0.009792 0.054974 -1.731873
2008-05-27 07:46:07 51°19.812 2°53.571 19.7473 0.009792 0.054974 -1.731873
2008-05-27 07:46:12 51°19.828 2°53.582 19.7524 0.009792 0.054974 -1.731873
2008-05-27 07:46:18 51°19.848 2°53.595 19.7534 0.009792 0.054974 -1.731873
2008-05-27 07:46:23 51°19.864 2°53.606 19.752 0.009792 0.054974 -1.731873
2008-05-27 07:46:28 51°19.88 2°53.617 19.7514 0.009792 0.054974 -1.766697
2008-05-27 07:46:32 51°19.893 2°53.625 19.7494 0.009792 0.054974 -1.731873
2008-05-27 07:46:37 51°19.909 2°53.636 19.7531 0.009792 0.054974 -1.731873
2008-05-27 07:46:43 51°19.928 2°53.649 19.7491 0.009792 0.054974 -1.731873
2008-05-27 07:46:48 51°19.944 2°53.66 19.7516 0.009792 0.054974 -1.731873
2008-05-27 07:46:52 51°19.957 2°53.668 19.7539 0.009792 0.054974 -1.766697
2008-05-27 07:46:58 51°19.976 2°53.68 19.7535 0.009792 0.054975 -1.731873
2008-05-27 07:47:03 51°19.992 2°53.691 19.752 0.009792 0.054976 -1.766697
2008-05-27 07:47:08 51°20.008 2°53.701 19.7535 0.009792 0.054975 -1.731873
2008-05-27 07:47:12 51°20.021 2°53.709 19.7537 0.009792 0.054975 -1.731873
2008-05-27 07:47:18 51°20.04 2°53.723 19.7557 0.009792 0.054975 -1.731873
2008-05-27 07:47:23 51°20.055 2°53.733 19.7597 0.009792 0.054976 -1.731873
2008-05-27 07:47:28 51°20.071 2°53.743 19.7604 0.009792 0.054976 -1.731873
2008-05-27 07:47:32 51°20.084 2°53.752 19.7603 0.009792 0.054976 -1.731873
2008-05-27 07:47:38 51°20.103 2°53.765 19.7571 0.009792 0.054976 -1.766697
2008-05-27 07:47:43 51°20.118 2°53.775 19.757 0.009792 0.054976 -1.766697
2008-05-27 07:47:48 51°20.134 2°53.787 19.7588 0.009792 0.054976 -1.731873
2008-05-27 07:47:53 51°20.15 2°53.797 19.7621 0.009792 0.054976 -1.766697
2008-05-27 07:47:58 51°20.166 2°53.808 19.7596 0.009792 0.054976 -1.731873
2008-05-27 07:48:03 51°20.181 2°53.819 19.7586 0.009792 0.054977 -1.731873
2008-05-27 07:48:07 51°20.193 2°53.828 19.7605 0.009792 0.054978 -1.731873
2008-05-27 07:48:12 51°20.209 2°53.839 19.7589 0.009792 0.054978 -1.731873
2008-05-27 07:48:18 51°20.228 2°53.853 19.7597 0.009792 0.054978 -1.731873
2008-05-27 07:48:23 51°20.243 2°53.864 19.769 0.009792 0.054978 -1.731873
2008-05-27 07:48:28 51°20.259 2°53.875 19.7716 0.009792 0.054978 -1.766697
2008-05-27 07:48:32 51°20.271 2°53.885 19.7693 0.009792 0.054978 -1.766697
2008-05-27 07:48:38 51°20.289 2°53.898 19.7701 0.009792 0.05498 -1.731873
2008-05-27 07:48:43 51°20.304 2°53.909 19.7671 0.009792 0.05498 -1.731873
2008-05-27 07:48:48 51°20.319 2°53.92 19.767 0.009792 0.054979 -1.731873
2008-05-27 07:48:52 51°20.332 2°53.929 19.7649 0.009792 0.05498 -1.731873
2008-05-27 07:48:58 51°20.35 2°53.943 19.7666 0.009792 0.05498 -1.731873
2008-05-27 07:49:03 51°20.366 2°53.954 19.7681 0.009792 0.05498 -1.766697
2008-05-27 07:49:07 51°20.379 2°53.964 19.7713 0.009792 0.05498 -1.731873
2008-05-27 07:49:12 51°20.395 2°53.975 19.7679 0.009792 0.05498 -1.731873
2008-05-27 07:49:18 51°20.413 2°53.988 19.7664 0.009792 0.05498 -1.731873
2008-05-27 07:49:23 51°20.429 2°54 19.7682 0.009792 0.05498 -1.731873
2008-05-27 07:49:28 51°20.445 2°54.01 19.7715 0.009792 0.054981 -1.731873
2008-05-27 07:49:32 51°20.457 2°54.019 19.7687 0.009792 0.054981 -1.731873
2008-05-27 07:49:38 51°20.477 2°54.032 19.7703 0.009792 0.054981 -1.766697
2008-05-27 07:49:43 51°20.492 2°54.043 19.7723 0.009792 0.054981 -1.766697
2008-05-27 07:49:48 51°20.508 2°54.054 19.7782 0.009792 0.054981 -1.731873
2008-05-27 07:49:52 51°20.52 2°54.064 19.7718 0.009792 0.054982 -1.731873
2008-05-27 07:49:58 51°20.539 2°54.076 19.7733 0.009792 0.054982 -1.731873
2008-05-27 07:50:03 51°20.555 2°54.087 19.772 0.009792 0.054982 -1.731873
2008-05-27 07:50:07 51°20.568 2°54.096 19.7716 0.009792 0.054982 -1.766697
2008-05-27 07:50:13 51°20.587 2°54.11 19.7728 0.009792 0.054982 -1.766697
2008-05-27 07:50:18 51°20.603 2°54.12 19.7726 0.009792 0.054982 -1.731873
2008-05-27 07:50:23 51°20.619 2°54.131 19.7736 0.009792 0.054982 -1.731873
2008-05-27 07:50:28 51°20.635 2°54.142 19.7762 0.009792 0.054983 -1.731873
2008-05-27 07:50:33 51°20.651 2°54.153 19.7779 0.009792 0.054982 -1.731873
2008-05-27 07:50:38 51°20.667 2°54.163 19.7813 0.009792 0.054982 -1.731873
2008-05-27 07:50:43 51°20.683 2°54.174 19.7769 0.009792 0.054982 -1.731873
2008-05-27 07:50:48 51°20.7 2°54.185 19.7782 0.009792 0.054982 -1.731873
2008-05-27 07:50:52 51°20.713 2°54.193 19.7766 0.009792 0.054982 -1.731873
2008-05-27 07:50:58 51°20.732 2°54.207 19.7772 0.009792 0.054983 -1.766697
2008-05-27 07:51:03 51°20.748 2°54.217 19.7849 0.009792 0.054982 -1.731873
2008-05-27 07:51:08 51°20.763 2°54.228 19.779 0.009792 0.054983 -1.766697
2008-05-27 07:51:12 51°20.776 2°54.238 19.7789 0.009792 0.054983 -1.766697
2008-05-27 07:51:17 51°20.792 2°54.249 19.7787 0.009792 0.054983 -1.731873
2008-05-27 07:51:23 51°20.811 2°54.263 19.7816 0.009792 0.054983 -1.731873
2008-05-27 07:51:28 51°20.828 2°54.274 19.784 0.009792 0.054982 -1.731873
2008-05-27 07:51:32 51°20.841 2°54.284 19.7804 0.009792 0.054982 -1.766697
2008-05-27 07:51:38 51°20.859 2°54.298 19.7827 0.009792 0.054983 -1.731873
2008-05-27 07:51:43 51°20.875 2°54.31 19.7859 0.009792 0.054983 -1.731873
2008-05-27 07:51:48 51°20.891 2°54.321 19.7867 0.009792 0.054983 -1.731873
2008-05-27 07:51:52 51°20.904 2°54.331 19.7896 0.009792 0.054983 -1.731873
2008-05-27 07:51:58 51°20.923 2°54.344 19.7907 0.009792 0.054983 -1.731873
2008-05-27 07:52:03 51°20.939 2°54.355 19.789 0.009792 0.054983 -1.731873
2008-05-27 07:52:08 51°20.955 2°54.367 19.7837 0.009792 0.054984 -1.731873
2008-05-27 07:52:13 51°20.971 2°54.378 19.7879 0.009792 0.054984 -1.731873
2008-05-27 07:52:18 51°20.988 2°54.389 19.7899 0.009792 0.054984 -1.731873
2008-05-27 07:52:23 51°21.003 2°54.4 19.7918 0.009792 0.054984 -1.731873
2008-05-27 07:52:27 51°21.016 2°54.409 19.7882 0.009792 0.054984 -1.731873
2008-05-27 07:52:32 51°21.032 2°54.42 19.7932 0.009792 0.054985 -1.731873
2008-05-27 07:52:38 51°21.051 2°54.434 19.788 0.009792 0.054985 -1.766697
2008-05-27 07:52:43 51°21.066 2°54.445 19.7913 0.009792 0.054985 -1.766697
2008-05-27 07:52:48 51°21.082 2°54.456 19.7897 0.009792 0.054985 -1.731873
2008-05-27 07:52:52 51°21.095 2°54.465 19.7934 0.009792 0.054985 -1.731873
2008-05-27 07:52:58 51°21.114 2°54.479 19.7899 0.009792 0.054986 -1.731873
2008-05-27 07:53:03 51°21.131 2°54.489 19.7917 0.009792 0.054986 -1.731873
2008-05-27 07:53:07 51°21.144 2°54.498 19.7899 0.009792 0.054986 -1.731873
2008-05-27 07:53:12 51°21.16 2°54.509 19.7958 0.009792 0.054986 -1.731873
2008-05-27 07:53:18 51°21.179 2°54.523 19.7971 0.009792 0.054987 -1.731873
2008-05-27 07:53:23 51°21.195 2°54.534 19.7966 0.009792 0.054986 -1.731873
2008-05-27 07:53:28 51°21.211 2°54.546 19.7953 0.009792 0.054987 -1.731873
2008-05-27 07:53:32 51°21.225 2°54.555 19.7974 0.009792 0.054987 -1.731873
2008-05-27 07:53:37 51°21.241 2°54.566 19.7923 0.009792 0.054987 -1.731873
2008-05-27 07:53:43 51°21.261 2°54.579 19.7981 0.009792 0.054987 -1.731873
2008-05-27 07:53:48 51°21.277 2°54.59 19.7992 0.009792 0.054988 -1.731873
2008-05-27 07:53:52 51°21.289 2°54.6 19.7965 0.009792 0.054988 -1.731873
2008-05-27 07:53:58 51°21.309 2°54.614 19.797 0.009792 0.054988 -1.731873
2008-05-27 07:54:03 51°21.325 2°54.625 19.795 0.009792 0.054988 -1.731873
2008-05-27 07:54:08 51°21.341 2°54.637 19.8047 0.009792 0.054988 -1.697049
2008-05-27 07:54:12 51°21.354 2°54.646 19.7972 0.009792 0.054988 -1.697049
2008-05-27 07:54:18 51°21.373 2°54.66 19.8003 0.009792 0.054988 -1.766697
2008-05-27 07:54:23 51°21.389 2°54.671 19.7993 0.009792 0.054989 -1.731873
2008-05-27 07:54:28 51°21.405 2°54.682 19.8071 0.009792 0.054989 -1.697049
2008-05-27 07:54:32 51°21.417 2°54.691 19.8071 0.009792 0.054989 -1.731873
2008-05-27 07:54:38 51°21.436 2°54.704 19.8073 0.009792 0.05499 -1.731873
2008-05-27 07:54:43 51°21.452 2°54.715 19.8047 0.009792 0.05499 -1.731873
2008-05-27 07:54:47 51°21.465 2°54.724 19.8045 0.009792 0.05499 -1.766697
2008-05-27 07:54:52 51°21.48 2°54.735 19.8027 0.009792 0.05499 -1.766697
2008-05-27 07:54:58 51°21.5 2°54.749 19.8026 0.009792 0.054991 -1.731873
2008-05-27 07:55:03 51°21.516 2°54.76 19.8022 0.009792 0.054992 -1.731873
2008-05-27 07:55:08 51°21.532 2°54.771 19.8031 0.009792 0.054992 -1.731873
2008-05-27 07:55:13 51°21.549 2°54.783 19.8124 0.009792 0.054992 -1.731873
2008-05-27 07:55:18 51°21.564 2°54.794 19.8112 0.009792 0.054992 -1.766697
2008-05-27 07:55:23 51°21.58 2°54.806 19.8068 0.009792 0.054992 -1.731873
2008-05-27 07:55:28 51°21.596 2°54.817 19.8058 0.009792 0.054994 -1.731873
2008-05-27 07:55:32 51°21.609 2°54.826 19.8071 0.009792 0.054994 -1.731873
2008-05-27 07:55:38 51°21.629 2°54.839 19.8023 0.009792 0.054994 -1.731873
2008-05-27 07:55:43 51°21.646 2°54.851 19.8324 0.009792 0.054994 -1.731873
2008-05-27 07:55:48 51°21.662 2°54.862 19.9155 0.009792 0.054992 -1.731873
2008-05-27 07:55:52 51°21.676 2°54.872 19.9471 0.009792 0.054992 -1.731873
2008-05-27 07:55:58 51°21.696 2°54.884 19.9214 0.009792 0.054992 -1.731873
2008-05-27 07:56:03 51°21.712 2°54.895 19.9091 0.009792 0.054992 -1.731873
2008-05-27 07:56:08 51°21.729 2°54.906 19.9167 0.009792 0.054992 -1.731873
2008-05-27 07:56:12 51°21.741 2°54.915 19.8893 0.009792 0.054992 -1.731873
2008-05-27 07:56:18 51°21.76 2°54.928 19.8942 0.009792 0.054992 -1.766697
2008-05-27 07:56:23 51°21.776 2°54.939 19.8849 0.009792 0.054993 -1.731873
2008-05-27 07:56:28 51°21.792 2°54.95 19.8916 0.009792 0.054994 -1.731873
2008-05-27 07:56:33 51°21.808 2°54.961 19.8694 0.009792 0.054994 -1.731873
2008-05-27 07:56:38 51°21.824 2°54.973 19.8724 0.009792 0.054994 -1.766697
2008-05-27 07:56:43 51°21.841 2°54.984 19.8756 0.009792 0.054994 -1.766697
2008-05-27 07:56:48 51°21.857 2°54.996 19.8658 0.009792 0.054995 -1.731873
2008-05-27 07:56:53 51°21.873 2°55.008 19.8721 0.009792 0.054996 -1.731873
2008-05-27 07:56:58 51°21.889 2°55.02 19.8615 0.009792 0.054996 -1.731873
2008-05-27 07:57:03 51°21.906 2°55.032 19.8822 0.009792 0.054997 -1.731873
2008-05-27 07:57:07 51°21.918 2°55.041 19.8704 0.009792 0.054997 -1.731873
2008-05-27 07:57:12 51°21.934 2°55.052 19.8773 0.009792 0.054997 -1.731873
2008-05-27 07:57:18 51°21.953 2°55.066 19.8747 0.009792 0.054997 -1.731873
2008-05-27 07:57:23 51°21.97 2°55.077 19.8753 0.009792 0.054997 -1.731873
2008-05-27 07:57:27 51°21.983 2°55.087 19.8808 0.009792 0.054997 -1.731873
2008-05-27 07:57:33 51°22.002 2°55.101 19.8759 0.009792 0.054997 -1.766697
2008-05-27 07:57:38 51°22.019 2°55.112 19.879 0.009792 0.054998 -1.731873
2008-05-27 07:57:43 51°22.035 2°55.124 19.8736 0.009792 0.054998 -1.731873
2008-05-27 07:57:48 51°22.052 2°55.136 19.8758 0.009792 0.054997 -1.731873
2008-05-27 07:57:52 51°22.065 2°55.146 19.8763 0.009792 0.054998 -1.731873
2008-05-27 07:57:58 51°22.085 2°55.16 19.8814 0.009792 0.054997 -1.731873
2008-05-27 07:58:03 51°22.101 2°55.173 19.8818 0.009792 0.054998 -1.731873
2008-05-27 07:58:08 51°22.118 2°55.185 19.8927 0.009792 0.054997 -1.731873
2008-05-27 07:58:12 51°22.13 2°55.195 19.8827 0.009792 0.054997 -1.731873
2008-05-27 07:58:18 51°22.149 2°55.208 19.8812 0.009792 0.054997 -1.731873
2008-05-27 07:58:23 51°22.165 2°55.219 19.8846 0.009792 0.054997 -1.731873
2008-05-27 07:58:28 51°22.181 2°55.23 19.8776 0.009792 0.054997 -1.731873
2008-05-27 07:58:32 51°22.194 2°55.239 19.8913 0.009792 0.054996 -1.731873
2008-05-27 07:58:38 51°22.213 2°55.253 19.8824 0.009792 0.054997 -1.731873
2008-05-27 07:58:43 51°22.229 2°55.265 19.9009 0.009792 0.054997 -1.731873
2008-05-27 07:58:48 51°22.245 2°55.277 19.8914 0.009792 0.054997 -1.731873
2008-05-27 07:58:52 51°22.258 2°55.286 19.9011 0.009792 0.054997 -1.731873
2008-05-27 07:58:58 51°22.277 2°55.299 19.8958 0.009792 0.054999 -1.731873
2008-05-27 07:59:03 51°22.293 2°55.311 19.8983 0.009792 0.054999 -1.731873
2008-05-27 07:59:08 51°22.309 2°55.322 19.8967 0.009792 0.054999 -1.731873
2008-05-27 07:59:13 51°22.326 2°55.334 19.9022 0.009792 0.054999 -1.731873
2008-05-27 07:59:18 51°22.342 2°55.345 19.8996 0.009792 0.054999 -1.731873
2008-05-27 07:59:23 51°22.357 2°55.356 19.8996 0.009792 0.054999 -1.731873
2008-05-27 07:59:28 51°22.373 2°55.368 19.8976 0.009792 0.054999 -1.731873
2008-05-27 07:59:33 51°22.388 2°55.378 19.8971 0.009792 0.054999 -1.731873
2008-05-27 07:59:38 51°22.404 2°55.389 19.8924 0.009792 0.055 -1.731873
2008-05-27 07:59:43 51°22.419 2°55.4 19.8963 0.009792 0.055 -1.731873
2008-05-27 07:59:47 51°22.432 2°55.409 19.9003 0.009792 0.055001 -1.731873
2008-05-27 07:59:52 51°22.448 2°55.419 19.9018 0.009792 0.055001 -1.731873
2008-05-27 07:59:58 51°22.467 2°55.433 19.8915 0.009792 0.055001 -1.731873
2008-05-27 08:00:03 51°22.483 2°55.444 19.9099 0.009792 0.055001 -1.731873
2008-05-27 08:00:08 51°22.499 2°55.455 19.911 0.009792 0.055001 -1.731873
2008-05-27 08:00:12 51°22.512 2°55.464 19.9016 0.009792 0.055001 -1.731873
2008-05-27 08:00:18 51°22.531 2°55.478 19.9074 0.009792 0.055001 -1.731873
2008-05-27 08:00:23 51°22.547 2°55.489 19.9108 0.009792 0.055 -1.731873
2008-05-27 08:00:28 51°22.563 2°55.501 19.9232 0.009792 0.055 -1.731873
2008-05-27 08:00:32 51°22.576 2°55.51 19.9276 0.009792 0.055 -1.731873
2008-05-27 08:00:38 51°22.596 2°55.524 19.9221 0.009792 0.055 -1.731873
2008-05-27 08:00:43 51°22.612 2°55.535 19.9206 0.009792 0.055 -1.731873
2008-05-27 08:00:48 51°22.628 2°55.546 19.9139 0.009792 0.055 -1.731873
2008-05-27 08:00:52 51°22.641 2°55.554 19.9116 0.009792 0.054999 -1.731873
2008-05-27 08:00:58 51°22.661 2°55.568 19.9204 0.009792 0.054999 -1.731873
2008-05-27 08:01:03 51°22.677 2°55.578 19.9268 0.009792 0.054999 -1.731873
2008-05-27 08:01:08 51°22.693 2°55.589 19.9199 0.009792 0.054999 -1.731873
2008-05-27 08:01:12 51°22.706 2°55.598 19.9155 0.009792 0.054999 -1.731873
2008-05-27 08:01:18 51°22.725 2°55.61 19.9221 0.009792 0.054999 -1.731873
2008-05-27 08:01:23 51°22.742 2°55.621 19.9118 0.009792 0.054999 -1.731873
2008-05-27 08:01:28 51°22.758 2°55.632 19.9134 0.009792 0.054999 -1.731873
2008-05-27 08:01:33 51°22.773 2°55.644 19.925 0.009792 0.054999 -1.731873
2008-05-27 08:01:38 51°22.79 2°55.654 19.9176 0.009792 0.055 -1.731873
2008-05-27 08:01:43 51°22.806 2°55.666 19.9269 0.009792 0.055 -1.731873
2008-05-27 08:01:48 51°22.822 2°55.676 19.9225 0.009792 0.055 -1.731873
2008-05-27 08:01:52 51°22.835 2°55.685 19.9194 0.009792 0.055 -1.731873
2008-05-27 08:01:58 51°22.854 2°55.699 19.9193 0.009792 0.055 -1.731873
2008-05-27 08:02:03 51°22.871 2°55.71 19.9237 0.009792 0.055 -1.731873
2008-05-27 08:02:07 51°22.883 2°55.719 19.9298 0.009792 0.054999 -1.731873
2008-05-27 08:02:12 51°22.899 2°55.73 19.9324 0.009792 0.054999 -1.731873
2008-05-27 08:02:18 51°22.918 2°55.743 19.9265 0.009792 0.055 -1.731873
2008-05-27 08:02:23 51°22.934 2°55.755 19.9238 0.009792 0.055 -1.731873
2008-05-27 08:02:28 51°22.95 2°55.766 19.9464 0.009792 0.055001 -1.731873
2008-05-27 08:02:32 51°22.962 2°55.775 19.9277 0.009792 0.055 -1.731873
2008-05-27 08:02:38 51°22.981 2°55.788 19.9362 0.009792 0.055001 -1.731873
2008-05-27 08:02:43 51°22.997 2°55.8 19.9277 0.009792 0.055001 -1.731873
2008-05-27 08:02:48 51°23.013 2°55.812 19.9403 0.009792 0.055001 -1.731873
2008-05-27 08:02:52 51°23.025 2°55.821 19.9302 0.009792 0.055001 -1.731873
2008-05-27 08:02:58 51°23.045 2°55.835 19.938 0.009792 0.055001 -1.766697
2008-05-27 08:03:03 51°23.061 2°55.846 19.9297 0.009792 0.055 -1.731873
2008-05-27 08:03:08 51°23.077 2°55.858 19.9402 0.009792 0.055 -1.731873
2008-05-27 08:03:12 51°23.09 2°55.867 19.936 0.009792 0.055 -1.731873
2008-05-27 08:03:18 51°23.109 2°55.88 19.96 0.009792 0.055 -1.731873
2008-05-27 08:03:23 51°23.125 2°55.892 19.9415 0.009792 0.055001 -1.731873
2008-05-27 08:03:28 51°23.141 2°55.903 19.9452 0.009792 0.055001 -1.731873
2008-05-27 08:03:32 51°23.154 2°55.912 19.9461 0.009792 0.055001 -1.731873
2008-05-27 08:03:38 51°23.173 2°55.926 19.9428 0.009792 0.055001 -1.731873
2008-05-27 08:03:43 51°23.189 2°55.937 19.9524 0.009792 0.055001 -1.731873
2008-05-27 08:03:48 51°23.205 2°55.949 19.9499 0.009792 0.055001 -1.731873
2008-05-27 08:03:53 51°23.22 2°55.96 19.9501 0.009792 0.055001 -1.731873
2008-05-27 08:03:58 51°23.237 2°55.972 19.9533 0.009792 0.055001 -1.731873
2008-05-27 08:04:03 51°23.253 2°55.983 19.9493 0.009792 0.055001 -1.731873
2008-05-27 08:04:08 51°23.268 2°55.995 19.9622 0.009792 0.055001 -1.731873
2008-05-27 08:04:12 51°23.281 2°56.005 19.9484 0.009792 0.055001 -1.731873
2008-05-27 08:04:18 51°23.301 2°56.019 19.9525 0.009792 0.055001 -1.731873
2008-05-27 08:04:23 51°23.317 2°56.031 19.9619 0.009792 0.055 -1.731873
2008-05-27 08:04:28 51°23.333 2°56.043 19.9517 0.009792 0.055 -1.731873
2008-05-27 08:04:32 51°23.346 2°56.052 19.9649 0.009792 0.055 -1.731873
2008-05-27 08:04:38 51°23.365 2°56.066 19.961 0.009792 0.055 -1.731873
2008-05-27 08:04:43 51°23.382 2°56.076 19.9661 0.009792 0.055 -1.731873
2008-05-27 08:04:48 51°23.398 2°56.088 19.9562 0.009792 0.055 -1.731873
2008-05-27 08:04:52 51°23.411 2°56.097 19.9639 0.009792 0.055 -1.766697
2008-05-27 08:04:58 51°23.431 2°56.109 19.9626 0.009792 0.055 -1.731873
2008-05-27 08:05:03 51°23.447 2°56.12 19.9634 0.009792 0.055 -1.731873
2008-05-27 08:05:08 51°23.463 2°56.131 19.9679 0.009792 0.055 -1.731873
2008-05-27 08:05:12 51°23.476 2°56.139 19.9695 0.009792 0.055 -1.731873
2008-05-27 08:05:18 51°23.496 2°56.152 19.9639 0.009792 0.055 -1.766697
2008-05-27 08:05:23 51°23.512 2°56.163 19.9815 0.009792 0.055 -1.731873
2008-05-27 08:05:28 51°23.528 2°56.174 19.9711 0.009792 0.055 -1.731873
2008-05-27 08:05:32 51°23.541 2°56.183 19.9705 0.009792 0.055 -1.731873
2008-05-27 08:05:38 51°23.559 2°56.196 19.9779 0.009792 0.055001 -1.731873
2008-05-27 08:05:43 51°23.575 2°56.206 19.9816 0.009792 0.055001 -1.731873
2008-05-27 08:05:47 51°23.588 2°56.215 19.9774 0.009792 0.055001 -1.731873
2008-05-27 08:05:52 51°23.604 2°56.225 19.9807 0.009792 0.055001 -1.731873
2008-05-27 08:05:58 51°23.623 2°56.238 19.9738 0.009792 0.055001 -1.731873
2008-05-27 08:06:03 51°23.639 2°56.249 19.9926 0.009792 0.055001 -1.731873
2008-05-27 08:06:08 51°23.655 2°56.26 19.9771 0.009792 0.055001 -1.731873
2008-05-27 08:06:13 51°23.671 2°56.27 19.9832 0.009792 0.055001 -1.731873
2008-05-27 08:06:18 51°23.686 2°56.281 19.9828 0.009792 0.055002 -1.731873
2008-05-27 08:06:23 51°23.702 2°56.292 19.9751 0.009792 0.055002 -1.731873
2008-05-27 08:06:27 51°23.715 2°56.301 19.9924 0.009792 0.055003 -1.731873
2008-05-27 08:06:32 51°23.73 2°56.312 19.9802 0.009792 0.055003 -1.731873
2008-05-27 08:06:38 51°23.749 2°56.325 19.9946 0.009792 0.055003 -1.731873
2008-05-27 08:06:43 51°23.765 2°56.336 19.9993 0.009792 0.055003 -1.731873
2008-05-27 08:06:48 51°23.781 2°56.348 19.9937 0.009792 0.055003 -1.731873
2008-05-27 08:06:52 51°23.794 2°56.357 19.9941 0.009792 0.055003 -1.731873
2008-05-27 08:06:58 51°23.814 2°56.37 19.996 0.009792 0.055003 -1.731873
2008-05-27 08:07:03 51°23.83 2°56.381 19.9889 0.009792 0.055003 -1.731873
2008-05-27 08:07:08 51°23.846 2°56.392 19.7051 0.009792 0.055008 -1.731873
2008-05-27 08:07:12 51°23.859 2°56.401 17.3911 0.009792 0.055008 -1.731873
2008-05-27 08:07:18 51°23.879 2°56.414 17.3258 0.009792 0.055009 -1.766697
2008-05-27 08:07:23 51°23.895 2°56.425 17.7015 0.009792 0.05501 -1.731873
2008-05-27 08:07:28 51°23.91 2°56.437 17.7495 0.009792 0.055011 -1.662225
2008-05-27 08:07:33 51°23.926 2°56.448 17.9188 0.009792 0.055012 -1.731873
2008-05-27 08:07:38 51°23.942 2°56.459 17.6673 0.009792 0.055013 -1.766697
2008-05-27 08:07:43 51°23.958 2°56.47 17.7916 0.009792 0.055013 -1.766697
2008-05-27 08:07:48 51°23.974 2°56.481 17.8358 0.009792 0.055013 -1.731873
2008-05-27 08:07:52 51°23.987 2°56.49 18.3059 0.009792 0.055014 -1.731873
2008-05-27 08:07:58 51°24.007 2°56.503 17.9342 0.009792 0.055013 -1.731873
2008-05-27 08:08:03 51°24.023 2°56.514 18.2043 0.009792 0.055014 -1.731873
2008-05-27 08:08:08 51°24.039 2°56.524 18.6238 0.009792 0.055014 -1.731873
2008-05-27 08:08:12 51°24.052 2°56.533 18.3871 0.009792 0.055014 -1.731873
2008-05-27 08:08:18 51°24.072 2°56.547 18.5609 0.009792 0.055013 -1.731873
2008-05-27 08:08:23 51°24.087 2°56.557 18.2224 0.009792 0.055013 -1.731873
2008-05-27 08:08:28 51°24.103 2°56.568 18.3788 0.009792 0.055013 -1.731873
2008-05-27 08:08:33 51°24.12 2°56.578 18.2241 0.009792 0.055013 -1.731873
2008-05-27 08:08:38 51°24.136 2°56.589 18.2097 0.009792 0.055013 -1.731873
2008-05-27 08:08:43 51°24.153 2°56.6 18.1614 0.009792 0.055013 -1.731873
2008-05-27 08:08:47 51°24.165 2°56.61 18.448 0.009792 0.055013 -1.731873
2008-05-27 08:08:52 51°24.182 2°56.621 18.3366 0.009792 0.055013 -1.731873
2008-05-27 08:08:58 51°24.202 2°56.634 18.264 0.009792 0.055013 -1.731873
2008-05-27 08:09:03 51°24.218 2°56.645 18.3473 0.009792 0.055013 -1.731873
2008-05-27 08:09:08 51°24.234 2°56.656 18.5194 0.009792 0.055012 -1.731873
2008-05-27 08:09:12 51°24.248 2°56.664 18.5865 0.009792 0.055012 -1.731873
2008-05-27 08:09:17 51°24.264 2°56.676 18.489 0.009792 0.055012 -1.731873
2008-05-27 08:09:23 51°24.284 2°56.689 18.7089 0.009792 0.055013 -1.731873
2008-05-27 08:09:28 51°24.3 2°56.699 18.5682 0.009792 0.055012 -1.731873
2008-05-27 08:09:32 51°24.313 2°56.708 18.6048 0.009792 0.055012 -1.731873
2008-05-27 08:09:38 51°24.333 2°56.721 18.6362 0.009792 0.055012 -1.731873
2008-05-27 08:09:43 51°24.35 2°56.732 18.7052 0.009792 0.055012 -1.731873
2008-05-27 08:09:48 51°24.366 2°56.743 19.6472 0.009792 0.055012 -1.731873
2008-05-27 08:09:52 51°24.379 2°56.752 19.7344 0.009792 0.055009 -1.731873
2008-05-27 08:09:58 51°24.399 2°56.766 19.6532 0.009792 0.055008 -1.731873
2008-05-27 08:10:03 51°24.415 2°56.778 19.3147 0.009792 0.055008 -1.766697
2008-05-27 08:10:08 51°24.431 2°56.789 19.0713 0.009792 0.055009 -1.731873
2008-05-27 08:10:12 51°24.444 2°56.799 19.0924 0.009792 0.055009 -1.731873
2008-05-27 08:10:18 51°24.464 2°56.812 19.0888 0.009792 0.055009 -1.731873
2008-05-27 08:10:23 51°24.48 2°56.823 19.082 0.009792 0.05501 -1.731873
2008-05-27 08:10:27 51°24.492 2°56.832 19.0956 0.009792 0.05501 -1.731873
2008-05-27 08:10:32 51°24.508 2°56.843 19.0884 0.009792 0.055011 -1.731873
2008-05-27 08:10:38 51°24.527 2°56.858 19.1356 0.009792 0.055011 -1.731873
2008-05-27 08:10:43 51°24.543 2°56.87 19.1052 0.009792 0.055011 -1.731873
2008-05-27 08:10:48 51°24.56 2°56.882 19.1241 0.009792 0.055011 -1.731873
2008-05-27 08:10:52 51°24.573 2°56.891 19.103 0.009792 0.055011 -1.731873
2008-05-27 08:10:58 51°24.592 2°56.906 19.1246 0.009792 0.055012 -1.731873
2008-05-27 08:11:03 51°24.608 2°56.917 19.0373 0.009792 0.055012 -1.731873
2008-05-27 08:11:07 51°24.621 2°56.927 19.0002 0.009792 0.055013 -1.731873
2008-05-27 08:11:12 51°24.638 2°56.938 18.9913 0.009792 0.055013 -1.731873
2008-05-27 08:11:18 51°24.657 2°56.953 18.9825 0.009792 0.055013 -1.731873
2008-05-27 08:11:23 51°24.674 2°56.964 19.051 0.009792 0.055014 -1.731873
2008-05-27 08:11:28 51°24.69 2°56.976 19.0403 0.009792 0.055014 -1.731873
2008-05-27 08:11:32 51°24.703 2°56.985 19.0203 0.009792 0.055014 -1.731873
2008-05-27 08:11:37 51°24.719 2°56.997 19.4569 0.009792 0.055014 -1.731873
2008-05-27 08:11:43 51°24.739 2°57.011 19.2487 0.009792 0.055014 -1.731873
2008-05-27 08:11:48 51°24.756 2°57.023 19.2727 0.009792 0.055013 -1.731873
2008-05-27 08:11:52 51°24.769 2°57.032 19.1822 0.009792 0.055013 -1.731873
2008-05-27 08:11:58 51°24.789 2°57.046 19.2088 0.009792 0.055013 -1.731873
2008-05-27 08:12:03 51°24.805 2°57.057 19.1976 0.009792 0.055013 -1.731873
2008-05-27 08:12:08 51°24.821 2°57.068 19.2572 0.009792 0.055014 -1.731873
2008-05-27 08:12:12 51°24.834 2°57.078 19.2164 0.009792 0.055014 -1.731873
2008-05-27 08:12:18 51°24.853 2°57.092 19.2585 0.009792 0.055014 -1.731873
2008-05-27 08:12:23 51°24.869 2°57.103 19.1941 0.009792 0.055015 -1.731873
2008-05-27 08:12:28 51°24.885 2°57.116 19.1754 0.009792 0.055015 -1.731873
2008-05-27 08:12:32 51°24.898 2°57.125 19.3058 0.009792 0.055015 -1.731873
2008-05-27 08:12:38 51°24.916 2°57.139 19.2466 0.009792 0.055015 -1.731873
2008-05-27 08:12:43 51°24.932 2°57.151 19.2587 0.009792 0.055015 -1.731873
2008-05-27 08:12:47 51°24.945 2°57.161 19.2008 0.009792 0.055016 -1.731873
2008-05-27 08:12:53 51°24.964 2°57.175 19.2245 0.009792 0.055017 -1.731873
2008-05-27 08:12:58 51°24.98 2°57.187 19.2402 0.009792 0.055017 -1.731873
2008-05-27 08:13:03 51°24.996 2°57.198 19.2658 0.009792 0.055017 -1.731873
2008-05-27 08:13:08 51°25.012 2°57.21 19.2428 0.009792 0.055016 -1.731873
2008-05-27 08:13:12 51°25.026 2°57.22 19.2735 0.009792 0.055016 -1.731873
2008-05-27 08:13:18 51°25.045 2°57.234 19.2598 0.009792 0.055017 -1.731873
2008-05-27 08:13:23 51°25.061 2°57.246 19.2453 0.009792 0.055017 -1.731873
2008-05-27 08:13:27 51°25.074 2°57.256 19.303 0.009792 0.055017 -1.731873
2008-05-27 08:13:32 51°25.089 2°57.267 19.2531 0.009792 0.055017 -1.731873
2008-05-27 08:13:38 51°25.108 2°57.282 19.3533 0.009792 0.055018 -1.731873
2008-05-27 08:13:43 51°25.124 2°57.293 19.3093 0.009792 0.055018 -1.731873
2008-05-27 08:13:48 51°25.14 2°57.306 19.333 0.009792 0.055018 -1.731873
2008-05-27 08:13:52 51°25.153 2°57.315 19.3399 0.009792 0.055018 -1.731873
2008-05-27 08:13:58 51°25.173 2°57.33 19.294 0.009792 0.055018 -1.731873
2008-05-27 08:14:03 51°25.188 2°57.342 19.2962 0.009792 0.055019 -1.731873
2008-05-27 08:14:08 51°25.204 2°57.354 19.3585 0.009792 0.05502 -1.731873
2008-05-27 08:14:12 51°25.216 2°57.364 19.3025 0.009792 0.05502 -1.731873
2008-05-27 08:14:18 51°25.236 2°57.378 19.2987 0.009792 0.05502 -1.731873
2008-05-27 08:14:23 51°25.251 2°57.39 19.3154 0.009792 0.05502 -1.731873
2008-05-27 08:14:28 51°25.267 2°57.402 19.3412 0.009792 0.05502 -1.731873
2008-05-27 08:14:32 51°25.28 2°57.412 19.3575 0.009792 0.05502 -1.731873
2008-05-27 08:14:38 51°25.3 2°57.426 19.3447 0.009792 0.05502 -1.731873
2008-05-27 08:14:43 51°25.316 2°57.438 19.3755 0.009792 0.05502 -1.731873
2008-05-27 08:14:47 51°25.329 2°57.448 19.3273 0.009792 0.05502 -1.731873
2008-05-27 08:14:52 51°25.345 2°57.46 19.4107 0.009792 0.05502 -1.731873
2008-05-27 08:14:58 51°25.365 2°57.474 19.3425 0.009792 0.055021 -1.731873
2008-05-27 08:15:03 51°25.381 2°57.486 19.4017 0.009792 0.055021 -1.731873
2008-05-27 08:15:08 51°25.397 2°57.498 19.3339 0.009792 0.05502 -1.731873
2008-05-27 08:15:13 51°25.413 2°57.51 19.4007 0.009792 0.05502 -1.731873
2008-05-27 08:15:18 51°25.429 2°57.521 19.353 0.009792 0.055021 -1.731873
2008-05-27 08:15:23 51°25.445 2°57.533 19.4092 0.009792 0.055021 -1.731873
2008-05-27 08:15:28 51°25.461 2°57.545 19.4017 0.009792 0.055022 -1.731873
2008-05-27 08:15:32 51°25.475 2°57.555 19.3867 0.009792 0.055022 -1.731873
2008-05-27 08:15:38 51°25.494 2°57.569 19.391 0.009792 0.055022 -1.731873
2008-05-27 08:15:43 51°25.511 2°57.582 19.3676 0.009792 0.055022 -1.731873
2008-05-27 08:15:47 51°25.524 2°57.591 19.4166 0.009792 0.055022 -1.731873
2008-05-27 08:15:52 51°25.54 2°57.603 19.3996 0.009792 0.055022 -1.731873
2008-05-27 08:15:58 51°25.56 2°57.618 19.4292 0.009792 0.055022 -1.731873
2008-05-27 08:16:03 51°25.576 2°57.63 19.4571 0.009792 0.055022 -1.731873
2008-05-27 08:16:08 51°25.592 2°57.641 19.4174 0.009792 0.055022 -1.731873
2008-05-27 08:16:12 51°25.605 2°57.651 19.427 0.009792 0.055022 -1.731873
2008-05-27 08:16:18 51°25.625 2°57.665 19.4048 0.009792 0.055022 -1.731873
2008-05-27 08:16:23 51°25.641 2°57.677 19.4225 0.009792 0.055022 -1.731873
2008-05-27 08:16:28 51°25.658 2°57.687 19.4307 0.009792 0.055023 -1.731873
2008-05-27 08:16:32 51°25.671 2°57.697 19.4656 0.009792 0.055024 -1.731873
2008-05-27 08:16:38 51°25.69 2°57.711 19.3952 0.009792 0.055024 -1.731873
2008-05-27 08:16:43 51°25.707 2°57.721 19.4709 0.009792 0.055024 -1.731873
2008-05-27 08:16:48 51°25.723 2°57.732 19.6751 0.009792 0.055024 -1.731873
2008-05-27 08:16:52 51°25.736 2°57.741 18.8663 0.009792 0.055024 -1.766697
2008-05-27 08:16:58 51°25.755 2°57.755 18.5281 0.009792 0.055024 -1.731873
2008-05-27 08:17:03 51°25.771 2°57.766 18.7342 0.009792 0.055024 -1.731873
2008-05-27 08:17:07 51°25.784 2°57.774 18.719 0.009792 0.055024 -1.731873
2008-05-27 08:17:12 51°25.8 2°57.786 18.7582 0.009792 0.055024 -1.731873
2008-05-27 08:17:18 51°25.82 2°57.799 18.7243 0.009792 0.055024 -1.766697
2008-05-27 08:17:23 51°25.836 2°57.81 18.7998 0.009792 0.055024 -1.731873
2008-05-27 08:17:28 51°25.852 2°57.822 18.7191 0.009792 0.055024 -1.731873
2008-05-27 08:17:32 51°25.865 2°57.831 18.9424 0.009792 0.055024 -1.731873
2008-05-27 08:17:38 51°25.885 2°57.845 18.9157 0.009792 0.055024 -1.731873
2008-05-27 08:17:43 51°25.901 2°57.856 18.8753 0.009792 0.055024 -1.731873
2008-05-27 08:17:48 51°25.917 2°57.868 18.8407 0.009792 0.055025 -1.731873
2008-05-27 08:17:52 51°25.931 2°57.877 18.9531 0.009792 0.055026 -1.731873
2008-05-27 08:17:58 51°25.95 2°57.89 19.0179 0.009792 0.055025 -1.731873
2008-05-27 08:18:03 51°25.967 2°57.902 18.9435 0.009792 0.055026 -1.731873
2008-05-27 08:18:08 51°25.983 2°57.913 18.994 0.009792 0.055026 -1.766697
2008-05-27 08:18:12 51°25.996 2°57.922 19.0706 0.009792 0.055026 -1.766697
2008-05-27 08:18:18 51°26.016 2°57.936 18.851 0.009792 0.055026 -1.731873
2008-05-27 08:18:23 51°26.032 2°57.947 18.8865 0.009792 0.055027 -1.731873
2008-05-27 08:18:28 51°26.047 2°57.958 18.9224 0.009792 0.055028 -1.731873
2008-05-27 08:18:33 51°26.063 2°57.969 18.922 0.009792 0.055028 -1.731873
2008-05-27 08:18:38 51°26.079 2°57.98 18.9784 0.009792 0.055029 -1.731873
2008-05-27 08:18:43 51°26.094 2°57.992 19.0402 0.009792 0.055029 -1.731873
2008-05-27 08:18:48 51°26.11 2°58.003 19.0889 0.009792 0.05503 -1.731873
2008-05-27 08:18:53 51°26.127 2°58.015 19.1095 0.009792 0.05503 -1.731873
2008-05-27 08:18:58 51°26.143 2°58.026 19.0508 0.009792 0.05503 -1.731873
2008-05-27 08:19:03 51°26.159 2°58.038 19.0323 0.009792 0.05503 -1.731873
2008-05-27 08:19:08 51°26.176 2°58.049 19.0463 0.009792 0.05503 -1.731873